                ,  0.301,  0.397,  0.494,  0.590,  0.687,  0.784,  0.880,  0.977,  1.073,  1.170,  1.267,  1.363,  1.460,  1.556,  1.653,  1.749,  1.846,  1.943,  2.039,  2.136,  2.232,  2.329,  2.426,  2.522,  2.619,  2.715,  2.812,  2.909,  3.005,  3.102,  3.198,  3.295,  3.392,  3.488,  3.585,  3.681,  3.778,  3.875,  3.971,  4.068,  4.164,  4.261,  4.357,  4.454,  4.551,  4.647,  4.744,  4.840,  4.937,  5.034,  5.130,  5.227,  5.323,  5.420,  5.517,  5.613,  5.710,  5.806,  5.903,  6.000,  6.096,  6.193,  6.289,  6.386,  6.483,  6.579,  6.676,  6.772,  6.869,  6.965,  7.062,  7.159,  7.255,  7.352,  7.448,  7.545,  7.642,  7.738,  7.835,  7.931
2012/11/23 00:00,  999.0,    0.5,    0.3,    0.1,    0.3,    0.8,    0.1,    1.9,    2.0,    1.7,  999.0,    0.3,   -0.2,    1.5,    3.1,    2.5,    1.5,    1.8,    2.4,    0.8,    0.2,    0.3,    0.9,    0.3,    0.5,    0.8,  999.0,   -0.2,    0.3,    0.2,  999.0,    0.0,    0.1,   -0.1,  999.0,  999.0,   -0.5,  999.0,  999.0,    0.1,  999.0,  999.0,  999.0,   -0.7,   -0.3,   -0.0,    0.1,    0.1,   -0.0,  999.0,  999.0,    0.1,   -0.1,   -0.1,   -0.1,    0.3,    0.1,    0.5,   -0.0,   -0.1,   -0.6,   -0.1,  999.0,    0.1,   -0.1,   -0.3,   -0.2,  999.0,  999.0,  999.0,  999.0,  999.0,  999.0,  999.0,  999.0,  999.0,  999.0,  999.0,  999.0,  999.0
2012/11/23 00:10,  999.0,    0.1,    0.1,   -0.2,    0.3,    0.7,    1.4,    1.8,    1.5,    0.9,    2.0,    1.0,    0.4,    0.2,    0.2,    0.5,    0.7,    1.6,    2.2,    1.5,    0.3,    0.0,    0.2,    0.2,    0.5,    1.3,    0.1,    0.5,    0.3,  999.0,  999.0,    0.0,   -0.1,    0.3,    0.0,    0.1,  999.0,  999.0,  999.0,  999.0,   -0.7,   -0.8,  999.0,   -0.1,   -0.0,    0.2,    0.4,    0.1,    0.1,  999.0,    0.3,    0.1,    0.1,    0.1,   -0.2,   -0.2,   -0.4,   -0.0,    0.1,    0.4,   -0.2,   -0.2,   -0.5,    0.1,    0.3,    0.1,    0.3,  999.0,  999.0,  999.0,  999.0,  999.0,  999.0,  999.0,  999.0,  999.0,  999.0,  999.0,  999.0,  999.0
2012/11/23 00:20,  999.0,   -0.1,    0.1,    0.1,    0.1,    0.1,    0.3,    1.7,    1.2,    1.9,    2.9,    1.7,    1.6,    0.7,    0.8,    0.3,    0.4,    0.7,    1.7,    0.4,   -0.0,    0.1,    0.3,    1.2,    1.4,    0.5,    0.1,  999.0,    0.1,  999.0,  999.0,    0.0,   -0.2,  999.0,  999.0,   -0.2,  999.0,  999.0,  999.0,   -0.0,  999.0,   -0.4,   -0.1,   -0.1,   -0.0,    0.1,    0.1,    0.0,    0.2,  999.0,    0.0,   -0.3,   -0.2,   -0.2,   -0.1,   -0.2,    0.1,   -0.1,   -0.4,   -0.1,   -0.2,   -0.1,    0.1,   -0.1,   -0.0,  999.0,   -0.2,  999.0,  999.0,  999.0,  999.0,  999.0,  999.0,  999.0,  999.0,  999.0,  999.0,  999.0,  999.0,  999.0
2012/11/23 00:30,  999.0,   -0.0,   -0.1,   -0.0,    0.3,    0.4,    0.9,    1.6,    1.2,    1.4,    1.5,    1.7,    0.8,    0.4,    0.5,    0.1,    0.1,    0.1,    0.3,    0.3,    0.1,    0.4,    0.9,    1.3,    0.7,    0.6,    0.6,   -0.1,    0.3,  999.0,  999.0,   -0.1,   -0.1,   -0.3,    0.0,  999.0,  999.0,  999.0,  999.0,  999.0,  999.0,   -0.1,  999.0,    0.1,    0.3,   -0.1,    0.2,    0.1,   -0.1,  999.0,   -0.2,   -0.1,   -0.4,   -0.1,    0.1,   -0.0,    0.0,   -0.1,    0.0,   -0.1,   -0.2,    0.0,   -0.3,    0.1,    0.2,  999.0,  999.0,  999.0,  999.0,  999.0,  999.0,  999.0,  999.0,  999.0,  999.0,  999.0,  999.0,  999.0,  999.0,  999.0
2012/11/23 00:40,  999.0,   -0.2,   -0.4,   -0.1,   -0.0,    0.4,    1.0,    2.1,    1.3,    1.3,    2.5,    1.9,    1.4,    1.0,    0.5,    0.0,    0.1,    0.3,    0.3,    0.4,    0.4,    0.5,    1.2,    1.6,    1.1,    1.0,  999.0,  999.0,  999.0,    0.1,   -0.1,   -0.2,  999.0,  999.0,  999.0,  999.0,  999.0,  999.0,  999.0,  999.0,  999.0,   -0.4,  999.0,    0.1,   -0.1,    0.0,   -0.1,    0.0,   -0.0,    0.1,    0.2,    0.2,   -0.3,    0.1,   -0.1,   -0.1,    0.2,    0.5,   -0.0,    0.1,    0.2,   -0.0,   -0.1,   -0.2,    0.1,   -0.2,  999.0,  999.0,  999.0,  999.0,  999.0,  999.0,  999.0,  999.0,  999.0,  999.0,  999.0,  999.0,  999.0,  999.0
2012/11/23 00:50,  999.0,  999.0,   -0.1,   -0.1,    0.1,   -0.2,    0.1,    0.6,    0.6,    1.0,    3.7,    5.5,   -0.1,   -0.0,    0.3,    0.3,    0.2,    0.2,    0.4,    0.3,    0.3,    0.5,    0.4,    0.4,    0.2,    0.4,  999.0,   -0.1,  999.0,    0.2,   -0.4,    0.2,    0.2,  999.0,  999.0,  999.0,  999.0,  999.0,  999.0,  999.0,   -0.4,   -0.2,  999.0,  999.0,  999.0,   -0.1,    0.1,   -0.1,   -0.3,    0.4,    0.4,  999.0,    0.1,    0.0,    0.3,    0.1,    0.2,    0.2,   -0.0,   -0.1,    0.1,    0.3,    0.3,    0.2,    0.1,    0.4,  999.0,  999.0,  999.0,  999.0,  999.0,  999.0,  999.0,  999.0,  999.0,  999.0,  999.0,  999.0,  999.0,  999.0
2012/11/23 01:00,  999.0,  999.0,    0.1,    0.2,    0.4,  999.0,    0.7,    0.8,    0.6,    0.6,    1.2,    0.7,    0.4,    0.3,    0.1,    0.2,    0.2,    0.5,    0.4,    0.2,    0.3,    0.6,    0.5,   -0.0,    0.0,    0.1,    0.5,   -0.0,  999.0,   -0.3,    0.0,  999.0,    0.2,  999.0,  999.0,  999.0,  999.0,  999.0,  999.0,  999.0,  999.0,  999.0,  999.0,    0.1,   -0.3,   -0.1,    0.0,   -0.1,   -0.2,   -0.2,    0.3,  999.0,    0.2,    0.1,    0.1,  999.0,   -0.1,   -0.0,    0.0,   -0.2,  999.0,   -0.7,   -0.2,    0.3,    0.5,  999.0,  999.0,  999.0,  999.0,  999.0,  999.0,  999.0,  999.0,  999.0,  999.0,  999.0,  999.0,  999.0,  999.0,  999.0
2012/11/23 01:10,  999.0,  999.0,   -0.1,   -0.3,    0.0,    0.5,    0.6,    0.2,    0.1,    0.2,    0.2,    0.7,    0.3,    0.0,    0.0,    0.1,    0.6,    0.7,    0.2,    0.3,    0.4,    0.6,    0.3,    0.2,    0.1,   -0.1,    0.0,   -0.2,   -0.1,    0.3,    0.2,  999.0,  999.0,   -0.0,   -0.3,  999.0,  999.0,  999.0,   -0.0,  999.0,  999.0,  999.0,  999.0,    0.3,   -0.0,    0.2,    0.0,    0.1,  999.0,  999.0,   -0.4,    0.2,    0.0,   -0.1,    0.2,    0.2,   -0.1,    0.2,    0.2,    0.4,   -0.1,    0.1,    0.3,   -0.0,    0.1,    0.3,  999.0,    0.1,  999.0,  999.0,  999.0,  999.0,  999.0,  999.0,  999.0,  999.0,  999.0,  999.0,  999.0,  999.0
2012/11/23 01:20,  999.0,   -0.1,   -0.5,    0.0,    0.4,    0.5,    0.4,    0.1,    0.4,    0.1,   -0.1,    0.2,    0.1,    0.1,    0.0,    0.3,    0.6,    0.3,    0.2,    0.2,    0.7,    0.1,    0.1,    0.1,    0.0,   -0.1,   -0.2,   -0.0,    0.1,   -0.3,   -0.1,    0.1,   -0.1,    0.2,    0.3,    0.3,    0.3,   -0.1,  999.0,  999.0,  999.0,  999.0,  999.0,    0.0,  999.0,    0.2,  999.0,    0.0,    0.1,   -0.1,   -0.1,  999.0,   -0.0,   -0.0,   -0.1,   -0.0,    0.1,   -0.3,  999.0,    0.6,    0.2,    0.3,    0.3,    0.0,   -0.0,    0.4,   -0.8,  999.0,  999.0,  999.0,  999.0,  999.0,  999.0,  999.0,  999.0,  999.0,  999.0,  999.0,  999.0,  999.0
2012/11/23 01:30,  999.0,  999.0,   -0.0,    0.2,    0.3,    0.3,    0.3,    0.3,    0.4,    0.3,    0.2,    0.3,    0.3,    0.1,    0.1,    0.3,   -0.0,    0.1,   -0.0,   -0.0,   -0.0,    0.1,    0.0,   -0.1,   -0.0,   -0.3,   -0.2,   -0.1,   -0.0,   -0.2,  999.0,    0.3,    0.4,    0.4,  999.0,   -0.2,  999.0,  999.0,   -0.5,  999.0,   -0.9,   -0.5,  999.0,   -0.4,  999.0,   -0.4,  999.0,  999.0,  999.0,   -0.3,   -0.0,  999.0,   -0.1,   -0.2,   -0.1,    0.2,   -0.2,   -0.1,    0.1,   -0.0,   -0.0,   -0.0,   -0.0,   -0.2,  999.0,  999.0,  999.0,    0.4,  999.0,  999.0,  999.0,  999.0,  999.0,  999.0,  999.0,  999.0,  999.0,  999.0,  999.0,  999.0
2012/11/23 01:40,  999.0,  999.0,   -0.2,    0.1,    0.4,    0.2,    0.5,    0.2,    0.2,   -0.0,    0.4,   -0.1,    0.0,   -0.2,   -0.4,   -0.6,   -0.7,   -0.5,   -0.1,   -0.2,   -0.1,    0.1,    0.0,   -0.1,    0.0,    0.1,    0.0,   -0.0,    0.1,   -0.2,    0.4,    0.0,   -0.2,    0.2,  999.0,    0.2,    0.2,  999.0,   -0.1,   -0.1,   -0.8,  999.0,    0.2,    0.3,  999.0,    0.6,    0.3,   -0.2,   -0.3,   -0.2,    0.1,    0.1,    0.1,   -0.1,    0.1,    0.2,    0.1,   -0.1,    0.1,   -0.1,    0.2,    0.4,  999.0,    0.2,  999.0,  999.0,    0.2,    0.3,  999.0,  999.0,  999.0,    0.1,  999.0,  999.0,  999.0,  999.0,  999.0,  999.0,  999.0,  999.0
2012/11/23 01:50,  999.0,  999.0,    0.5,    0.6,    1.1,    0.5,    0.0,    0.1,    0.2,    0.3,    0.1,    0.1,   -0.1,   -0.5,   -0.3,   -0.2,   -0.2,   -0.1,    0.1,   -0.0,   -0.1,    0.0,    0.0,    0.3,   -0.0,    0.1,   -0.0,    0.2,   -0.3,   -0.1,    0.0,    0.2,  999.0,    0.1,    0.1,    0.1,  999.0,  999.0,   -0.1,   -0.1,   -0.5,   -0.8,  999.0,    0.1,    0.2,   -0.0,    0.1,   -0.1,    0.4,   -0.1,  999.0,   -0.1,  999.0,   -0.1,  999.0,   -0.3,    0.1,    0.1,    0.0,    0.2,  999.0,    0.1,   -0.2,   -0.2,  999.0,   -0.4,  999.0,  999.0,  999.0,  999.0,  999.0,  999.0,  999.0,  999.0,  999.0,  999.0,  999.0,  999.0,  999.0,  999.0
2012/11/23 02:00,  999.0,  999.0,    0.4,    1.8,    4.3,    4.0,  999.0,    2.7,    1.0,    1.2,    0.9,   -0.0,   -0.4,   -0.2,   -0.1,   -0.0,    0.1,   -0.0,   -0.1,    0.1,    0.1,    0.2,    0.1,   -0.0,   -0.0,   -0.1,   -0.0,    0.0,  999.0,    0.0,  999.0,  999.0,  999.0,  999.0,  999.0,   -0.1,  999.0,  999.0,  999.0,  999.0,  999.0,   -0.2,   -0.0,    0.1,    0.3,   -0.1,  999.0,   -0.0,    0.1,    0.1,    0.4,  999.0,    0.1,   -0.1,    0.3,   -0.0,   -0.3,   -0.4,  999.0,   -0.1,    0.3,   -0.2,   -0.0,  999.0,   -0.4,   -0.4,  999.0,  999.0,  999.0,  999.0,  999.0,  999.0,  999.0,  999.0,  999.0,  999.0,  999.0,  999.0,  999.0,  999.0
2012/11/23 02:10,  999.0,   -0.3,    1.8,    4.1,    4.0,    1.6,    0.6,   -0.0,   -0.5,    0.3,   -0.4,   -0.0,   -0.1,   -0.0,   -0.2,   -0.3,   -0.3,   -0.1,   -0.1,   -0.1,   -0.0,   -0.1,   -0.1,   -0.1,    0.0,    0.0,    0.2,   -0.2,   -0.3,    0.3,    0.2,    0.1,    0.5,   -0.3,   -0.2,   -0.4,   -0.3,  999.0,  999.0,  999.0,   -0.3,   -0.3,    0.0,    0.3,   -0.1,  999.0,  999.0,   -0.0,    0.3,    0.2,    0.3,   -0.1,    0.0,    0.5,    0.3,    0.0,    0.1,    0.0,   -0.1,    0.0,    0.2,    0.2,    0.5,   -0.3,  999.0,   -0.2,  999.0,  999.0,  999.0,  999.0,  999.0,  999.0,  999.0,  999.0,  999.0,  999.0,  999.0,  999.0,  999.0,  999.0
2012/11/23 02:20,  999.0,   -0.1,    0.9,    1.6,    1.7,    0.5,    0.1,   -0.2,   -0.2,    0.0,   -0.3,    0.0,   -0.0,   -0.6,   -0.8,   -0.7,   -0.6,   -0.1,   -0.0,   -0.1,   -0.2,   -0.1,   -0.3,   -0.0,    0.0,    0.0,   -0.3,    0.2,   -0.8,   -0.1,    0.1,    0.0,    0.0,    0.2,  999.0,   -0.1,  999.0,  999.0,   -0.5,   -0.3,   -0.5,   -0.4,    0.2,   -0.2,   -0.2,   -0.3,  999.0,   -0.1,    0.2,    0.0,    0.7,    0.3,    0.2,   -0.1,   -0.1,   -0.1,   -0.2,   -0.3,    0.4,    0.1,  999.0,  999.0,   -0.2,  999.0,  999.0,    0.0,  999.0,  999.0,  999.0,  999.0,  999.0,  999.0,  999.0,  999.0,  999.0,  999.0,  999.0,  999.0,  999.0,  999.0
2012/11/23 02:30,  999.0,   -0.3,    0.6,    1.9,    1.4,    0.4,   -0.0,   -0.1,   -0.2,   -0.0,   -0.1,   -0.1,    0.0,   -0.1,   -0.1,   -0.0,   -0.1,   -0.0,    0.0,    0.0,   -0.1,    0.1,   -0.1,    0.0,   -0.1,   -0.1,   -0.3,   -0.2,   -0.3,    0.4,    0.3,    0.1,    0.1,    0.1,  999.0,  999.0,  999.0,  999.0,    0.1,   -0.3,   -0.7,   -0.4,   -0.2,   -0.0,   -0.0,    0.1,  999.0,   -0.1,    0.1,   -0.2,  999.0,    0.2,    0.1,   -0.1,    0.0,  999.0,   -0.0,   -0.0,    0.0,    0.2,  999.0,   -0.0,    0.1,  999.0,    0.1,   -0.2,  999.0,  999.0,   -0.1,  999.0,  999.0,  999.0,  999.0,  999.0,  999.0,  999.0,  999.0,  999.0,  999.0,  999.0
2012/11/23 02:40,  999.0,   -0.1,    0.3,    1.0,    1.7,    1.1,    0.3,    0.1,   -0.1,   -0.2,   -0.5,   -0.4,   -0.4,   -0.3,   -0.4,   -0.4,   -0.3,  999.0,   -0.1,   -0.1,   -0.2,   -0.1,   -0.1,    0.0,   -0.1,   -0.2,   -0.9,  999.0,   -0.1,  999.0,    0.5,    0.1,  999.0,  999.0,  999.0,    0.2,  999.0,  999.0,  999.0,  999.0,   -0.3,   -0.4,   -0.3,   -0.2,   -0.1,   -0.2,   -0.0,   -0.1,   -0.1,   -0.1,  999.0,    0.4,  999.0,   -0.0,    0.1,  999.0,   -0.1,   -0.2,    0.2,  999.0,   -0.0,   -0.1,  999.0,    0.0,  999.0,   -0.1,   -0.1,  999.0,  999.0,  999.0,  999.0,  999.0,  999.0,  999.0,  999.0,  999.0,  999.0,  999.0,  999.0,  999.0
2012/11/23 02:50,  999.0,   -0.6,    1.0,    2.9,    2.2,    0.7,    0.1,   -0.7,   -0.3,    0.3,    0.3,   -0.2,    0.8,   -0.4,   -0.5,  999.0,   -0.2,    0.1,   -0.0,    0.0,    0.1,   -0.0,    0.1,   -0.2,   -0.4,    0.2,   -0.2,  999.0,    0.2,    0.3,   -0.1,    0.1,  999.0,  999.0,  999.0,  999.0,  999.0,  999.0,    0.1,  999.0,  999.0,  999.0,   -0.2,  999.0,   -0.0,  999.0,  999.0,    0.1,    0.1,   -0.2,  999.0,    0.2,   -0.2,   -0.2,   -0.4,    0.2,   -0.0,    0.4,   -0.1,    0.0,   -0.2,    0.1,   -0.2,   -0.1,  999.0,  999.0,  999.0,  999.0,  999.0,  999.0,  999.0,  999.0,  999.0,  999.0,  999.0,  999.0,  999.0,  999.0,  999.0,  999.0
2012/11/23 03:00,  999.0,   -0.6,    0.2,    0.7,    0.4,    1.0,    0.2,    0.1,   -0.1,    0.1,    0.1,    0.1,    0.1,    0.0,   -0.1,   -0.1,   -0.2,   -0.2,   -0.0,   -0.1,   -0.1,   -0.1,    0.0,    0.0,   -0.0,   -0.3,  999.0,    0.0,   -0.1,   -0.1,    0.1,    0.3,   -0.2,  999.0,   -0.1,    0.2,  999.0,    0.2,   -0.1,  999.0,  999.0,   -0.8,   -0.1,   -0.0,  999.0,  999.0,   -0.2,   -0.1,    0.3,    0.1,  999.0,   -0.1,    0.2,   -0.3,   -0.0,   -0.3,   -0.5,  999.0,    0.1,    0.1,  999.0,   -0.1,  999.0,  999.0,  999.0,    0.2,  999.0,  999.0,  999.0,  999.0,  999.0,  999.0,  999.0,  999.0,  999.0,  999.0,  999.0,  999.0,  999.0,  999.0
2012/11/23 03:10,  999.0,   -0.2,    0.1,    0.2,    0.5,   -0.1,   -0.1,   -0.6,   -0.3,    0.0,   -0.0,   -0.1,    0.0,    0.1,    0.0,   -0.0,   -0.1,   -0.1,   -0.3,   -0.2,   -0.0,   -0.3,   -0.1,   -0.1,   -0.4,   -0.1,   -0.1,   -0.7,   -0.2,    0.0,    0.1,    0.2,    0.3,  999.0,    0.1,  999.0,   -0.2,    0.2,  999.0,  999.0,   -0.6,   -1.0,   -0.3,   -0.2,    0.0,   -0.2,    0.0,   -0.1,    0.1,  999.0,   -0.1,   -0.1,    0.3,   -0.0,   -0.1,  999.0,   -0.3,   -0.1,    0.2,   -0.3,  999.0,    0.2,  999.0,    0.0,  999.0,  999.0,  999.0,  999.0,  999.0,  999.0,  999.0,  999.0,  999.0,  999.0,  999.0,  999.0,  999.0,  999.0,  999.0,  999.0
2012/11/23 03:20,  999.0,   -0.0,    0.3,   -0.1,   -0.1,   -0.3,   -0.1,   -0.2,  999.0,   -0.3,   -0.1,    0.0,    0.0,    0.0,   -0.0,    0.0,   -0.1,   -0.2,   -0.2,    0.0,   -0.1,    0.0,    0.3,    0.2,    0.0,   -0.2,    0.3,    0.3,   -0.1,   -0.1,   -0.3,    0.3,    0.2,   -0.1,  999.0,   -0.2,  999.0,   -0.3,  999.0,  999.0,   -0.4,   -0.2,   -0.2,    0.2,    0.1,    0.0,   -0.2,   -0.1,   -0.2,  999.0,    0.2,    0.3,    0.1,    0.0,   -0.0,    0.0,  999.0,  999.0,   -0.5,   -0.0,  999.0,    0.2,  999.0,  999.0,  999.0,    0.1,  999.0,  999.0,    0.2,  999.0,  999.0,  999.0,  999.0,  999.0,  999.0,  999.0,  999.0,  999.0,  999.0,  999.0
2012/11/23 03:30,  999.0,   -0.1,   -0.0,    0.2,    0.9,   -0.0,   -0.1,    0.4,   -0.4,   -0.1,    0.0,   -0.0,   -0.0,    0.0,    0.0,   -0.1,  999.0,   -0.0,    0.2,  999.0,  999.0,  999.0,  999.0,  999.0,  999.0,  999.0,  999.0,  999.0,  999.0,  999.0,  999.0,  999.0,  999.0,  999.0,  999.0,  999.0,    0.3,   -0.1,  999.0,  999.0,   -0.7,   -0.3,    0.0,   -0.1,   -0.1,   -0.1,   -0.1,   -0.2,   -0.3,    0.2,  999.0,   -1.1,  999.0,  999.0,   -2.5,  999.0,    8.5,    7.8,   14.7,  999.0,    5.6,  999.0,  999.0,  999.0,   -0.5,  999.0,  999.0,  999.0,  999.0,  999.0,  999.0,  999.0,  999.0,  999.0,  999.0,  999.0,  999.0,  999.0,  999.0,  999.0
2012/11/23 03:40,  999.0,    0.3,    0.6,    0.1,    0.1,    0.5,    0.6,    0.2,    0.1,   -0.1,   -0.0,    0.0,    0.0,    0.1,    0.1,    0.2,   -0.1,    0.3,   -0.2,   -0.0,   -0.4,   -0.3,    0.4,    0.4,    0.2,   -0.3,   -0.0,   -0.0,   -0.2,  999.0,   -0.1,   -0.1,   -0.0,  999.0,  999.0,   -0.1,    0.3,    0.5,   -0.1,   -0.4,   -0.6,   -0.3,   -0.1,   -0.4,   -0.3,   -0.3,   -0.4,   -0.2,   -0.2,  999.0,   -1.5,  999.0,  999.0,  999.0,  999.0,  999.0,  999.0,  999.0,  999.0,  999.0,  999.0,  999.0,  999.0,  999.0,  999.0,  999.0,  999.0,  999.0,  999.0,  999.0,  999.0,  999.0,  999.0,  999.0,  999.0,  999.0,  999.0,  999.0,  999.0,  999.0
2012/11/23 03:50,  999.0,    0.7,  999.0,   -0.9,    0.6,    0.3,   -0.2,   -0.2,   -0.0,   -0.0,    0.0,   -0.1,    0.3,    0.0,    0.0,   -0.2,   -0.1,   -0.2,    0.0,   -0.1,   -0.2,   -0.2,   -0.2,   -0.3,   -0.2,   -0.2,   -0.4,   -0.3,    3.7,   -0.2,    0.0,   -0.0,    0.1,  999.0,    0.2,  999.0,  999.0,   -0.1,   -0.3,   -0.1,   -0.4,   -0.4,   -0.1,   -0.0,   -0.0,   -0.3,   -0.6,   -0.3,   -0.2,    0.0,    0.1,   -0.1,   -0.1,   -0.3,   -1.0,   -0.8,   -1.5,   -1.8,   -1.0,   -0.8,   -1.1,  999.0,  999.0,  999.0,  999.0,    0.1,  999.0,  999.0,  999.0,  999.0,  999.0,  999.0,  999.0,    0.2,  999.0,  999.0,  999.0,  999.0,  999.0,  999.0
2012/11/23 04:00,  999.0,   -0.1,   -0.8,   -0.0,   -0.3,    1.0,    0.3,    0.2,    0.1,    0.2,    0.3,    0.4,    0.3,    0.3,    0.2,   -0.2,   -0.7,   -0.6,   -0.7,   -0.6,   -0.3,    0.1,   -0.3,   -0.4,    0.1,    0.0,   -0.1,    0.1,    0.0,   -0.0,    0.2,    0.1,  999.0,   -0.2,    0.2,   -0.1,  999.0,    0.2,   -0.3,   -0.2,   -0.8,   -0.5,    0.1,   -0.1,   -0.1,   -0.2,   -0.2,   -0.2,   -0.2,   -0.2,   -0.0,    0.0,   -0.2,    0.2,    0.1,    0.1,   -0.1,   -0.3,   -0.2,   -0.1,    0.2,  999.0,    0.1,   -0.3,   -0.1,   -0.4,  999.0,  999.0,  999.0,  999.0,  999.0,  999.0,  999.0,  999.0,  999.0,  999.0,  999.0,  999.0,  999.0,  999.0
2012/11/23 04:10,  999.0,   -0.2,   -1.5,   -1.0,   -0.7,   -0.3,    0.0,    0.1,    0.0,   -0.2,   -0.0,    0.2,   -0.0,    0.0,    0.0,   -0.1,   -0.7,   -0.4,   -0.9,   -0.9,   -0.4,   -0.7,   -1.7,   -0.5,   -0.1,    0.2,   -0.1,    0.1,   -0.0,   -0.1,   -0.0,   -0.0,   -0.1,    0.3,   -0.1,   -0.2,   -0.1,    0.1,   -0.3,   -0.5,   -0.9,   -0.5,    0.0,   -0.0,    0.1,    0.0,   -0.1,   -0.3,   -0.1,   -0.1,    0.3,   -0.0,   -0.1,   -0.0,    0.1,    0.1,   -0.1,   -0.0,   -0.2,   -0.1,    0.2,  999.0,  999.0,   -0.0,   -0.1,   -0.4,  999.0,  999.0,  999.0,  999.0,  999.0,  999.0,  999.0,  999.0,  999.0,  999.0,  999.0,  999.0,  999.0,  999.0
2012/11/23 04:20,  999.0,   -0.8,   -1.6,   -0.1,    1.1,    0.7,   -0.2,    0.5,    0.5,    0.6,    0.2,   -0.1,   -0.3,   -0.3,   -1.0,   -0.5,   -0.1,   -0.2,   -0.2,   -0.1,   -0.3,   -0.9,   -1.3,   -1.0,   -0.6,   -0.4,    0.0,    0.2,    0.2,   -0.0,   -0.0,   -0.1,  999.0,  999.0,  999.0,    0.4,  999.0,   -0.0,    0.2,    0.0,   -0.1,   -0.4,   -0.0,   -0.1,    0.0,    0.1,   -0.1,    0.1,   -0.0,    0.1,    0.3,   -0.2,   -0.5,   -0.2,   -0.0,    0.1,    0.2,    0.2,   -0.2,   -0.1,   -0.2,   -0.1,  999.0,  999.0,  999.0,   -0.1,  999.0,  999.0,  999.0,  999.0,  999.0,  999.0,  999.0,  999.0,  999.0,  999.0,  999.0,  999.0,  999.0,  999.0
2012/11/23 04:30,  999.0,   -0.2,   -0.1,    0.2,   -0.2,    0.0,    0.2,   -0.0,  999.0,   -0.2,    0.2,   -0.1,    0.2,    0.0,   -0.1,   -0.1,   -0.0,   -0.1,   -0.0,    0.0,   -0.2,   -0.3,    0.1,    0.0,   -0.2,    0.0,   -0.2,   -0.1,   -0.5,   -0.3,   -0.1,    0.3,    0.4,   -0.1,   -0.3,  999.0,    0.0,  999.0,    0.1,    0.0,   -0.2,   -0.3,   -0.0,   -0.1,    0.0,    0.3,   -0.1,    0.1,    0.0,  999.0,  999.0,   -0.1,   -0.0,    0.1,    0.1,   -0.2,    0.0,    0.2,   -0.1,    0.0,  999.0,  999.0,    0.1,    0.0,  999.0,   -0.1,  999.0,  999.0,  999.0,  999.0,  999.0,  999.0,  999.0,  999.0,  999.0,  999.0,  999.0,  999.0,  999.0,  999.0
2012/11/23 04:40,  999.0,   -0.2,   -0.5,   -0.1,    0.2,   -0.1,    0.2,  999.0,  999.0,    0.1,   -0.1,   -0.1,   -0.1,    0.2,    0.2,    0.1,   -0.2,   -0.2,   -0.1,   -0.1,   -0.0,   -0.4,   -0.5,   -0.5,   -0.5,   -0.6,   -0.8,   -1.4,   -0.6,   -0.8,   -0.3,   -0.2,    0.2,    0.1,   -0.3,   -0.2,   -0.2,   -0.3,   -0.1,   -0.2,   -0.3,   -0.3,    0.4,   -0.3,    0.0,    0.1,    0.1,   -0.2,    0.2,    0.1,    0.0,    0.1,    0.1,    0.0,    0.2,   -0.1,    0.0,    0.1,   -0.4,   -0.2,    0.0,    0.1,  999.0,    0.0,    0.2,    0.2,  999.0,  999.0,  999.0,  999.0,  999.0,  999.0,  999.0,  999.0,  999.0,  999.0,  999.0,  999.0,  999.0,  999.0
2012/11/23 04:50,  999.0,   -0.1,    0.0,   -0.0,   -0.3,   -0.4,  999.0,  999.0,  999.0,    0.1,   -0.1,    0.1,    0.1,    0.2,    0.3,    0.1,   -0.1,   -0.1,   -0.1,   -0.0,    0.0,   -0.3,    0.2,   -0.4,   -0.5,    0.2,    0.3,   -0.1,   -0.2,   -0.4,   -0.7,   -0.3,    0.1,    0.1,    0.2,    0.3,    0.2,   -0.1,   -0.1,   -0.1,   -0.5,   -0.4,    0.1,    0.1,   -0.0,   -0.1,   -0.1,   -0.0,   -0.0,    0.1,   -0.1,   -0.0,   -0.0,   -0.1,    0.1,    0.1,    0.0,   -0.0,   -0.0,    0.3,    0.0,    0.1,  999.0,    0.1,    0.0,  999.0,  999.0,  999.0,  999.0,  999.0,  999.0,  999.0,  999.0,  999.0,  999.0,  999.0,  999.0,  999.0,  999.0,  999.0
2012/11/23 05:00,  999.0,    0.0,   -0.0,   -0.0,   -0.1,    0.4,  999.0,  999.0,  999.0,    0.1,    0.1,    0.4,    0.0,    0.1,   -0.1,   -0.2,   -0.0,   -0.1,    0.1,    0.1,    0.1,   -0.5,   -0.5,   -0.5,   -0.4,   -0.4,   -1.2,   -1.9,   -1.5,   -1.2,   -0.9,   -0.7,   -0.4,   -0.3,    0.5,    0.3,  999.0,    0.0,   -0.2,  999.0,   -0.0,   -0.1,    0.1,   -0.0,   -0.1,   -0.1,   -0.2,   -0.1,    0.1,    0.1,    0.2,   -0.2,    0.1,    0.1,   -0.1,    0.1,    0.0,    0.0,    0.2,    0.4,    0.1,   -0.3,  999.0,   -0.1,   -0.3,   -0.2,   -0.0,  999.0,  999.0,  999.0,  999.0,  999.0,  999.0,  999.0,  999.0,  999.0,  999.0,  999.0,  999.0,  999.0
2012/11/23 05:10,  999.0,    0.3,    0.1,    0.0,   -0.1,   -0.1,  999.0,  999.0,  999.0,   -0.2,   -0.8,   -0.4,   -0.3,   -0.0,    0.0,   -0.2,   -0.2,   -0.1,   -0.2,   -0.3,   -0.1,   -0.8,   -1.1,   -0.7,   -1.5,   -1.1,   -3.1,   -1.7,   -0.3,   -0.1,   -0.3,   -0.0,   -0.1,    0.1,    0.1,    0.2,   -0.2,    0.1,   -0.1,   -0.1,   -0.0,    0.0,    0.1,    0.1,   -0.2,   -0.2,   -0.0,    0.0,    0.0,    0.2,    0.3,    0.1,   -0.1,   -0.1,   -0.2,   -0.2,   -0.1,   -0.2,    0.1,    0.1,    0.0,   -0.0,    0.1,   -0.1,    0.3,   -0.1,  999.0,  999.0,  999.0,  999.0,  999.0,  999.0,  999.0,   -0.3,  999.0,  999.0,  999.0,  999.0,  999.0,  999.0
2012/11/23 05:20,  999.0,  999.0,  999.0,   -0.0,    0.1,   -0.1,  999.0,  999.0,  999.0,    0.1,   -0.1,    0.0,   -0.1,   -0.1,    0.1,    0.1,   -0.0,   -0.1,   -0.0,   -0.1,    0.0,    0.1,    0.2,   -0.5,   -1.0,   -1.2,   -0.2,   -0.8,    0.0,   -0.4,   -0.2,   -0.0,    0.0,    0.0,   -0.0,    0.1,   -0.1,    0.1,    0.0,    0.2,   -0.1,   -0.0,   -0.1,   -0.0,   -0.1,   -0.1,    0.0,   -0.1,   -0.1,   -0.0,   -0.1,    0.1,   -0.1,   -0.0,    0.1,    0.1,    0.2,    0.1,    0.0,    0.2,   -0.1,   -0.0,   -0.2,    0.2,    0.1,   -0.5,  999.0,  999.0,  999.0,  999.0,  999.0,  999.0,  999.0,  999.0,  999.0,  999.0,  999.0,  999.0,  999.0,  999.0
2012/11/23 05:30,  999.0,  999.0,   -0.1,    0.0,   -0.0,  999.0,  999.0,   -0.1,  999.0,   -0.1,  999.0,    0.2,    0.3,    0.1,   -0.0,    0.1,  999.0,  999.0,  999.0,   -1.5,   -0.9,  999.0,    4.5,   -0.7,    2.0,    7.3,    4.6,   -0.5,    2.6,    2.0,   -0.3,   -0.0,   -0.1,   -0.1,   -0.2,    0.3,    0.1,    0.3,   -0.0,    0.2,   -0.1,   -0.2,   -0.0,    0.2,    0.0,    0.1,  999.0,   -0.0,   -0.0,   -0.1,   -0.0,   -0.2,    0.1,    0.2,    0.1,    0.1,   -0.1,    0.1,    0.1,   -0.1,    0.2,   -0.0,    0.4,   -0.0,    0.1,   -0.3,  999.0,  999.0,   -0.2,  999.0,  999.0,   -0.5,    0.2,  999.0,  999.0,  999.0,  999.0,  999.0,  999.0,  999.0
2012/11/23 05:40,  999.0,  999.0,    0.5,    0.3,    0.3,    0.2,    0.4,  999.0,  999.0,  999.0,   -0.2,    0.2,    0.1,   -0.3,   -0.3,    0.2,    0.5,    0.7,    0.5,    0.4,    0.5,   -0.0,  999.0,    7.4,    7.2,    6.9,    7.3,    5.6,   -0.7,   -0.4,    0.1,    0.1,   -0.1,   -0.2,   -0.2,   -0.1,   -0.1,  999.0,   -0.0,   -0.1,   -0.2,    0.0,   -0.1,   -0.1,    0.0,    0.2,    0.2,    0.0,    0.0,   -0.0,    0.2,   -0.0,   -0.1,   -0.0,   -0.1,   -0.0,    0.1,    0.1,   -0.1,   -0.0,   -0.1,    0.1,    0.1,   -0.1,    0.1,    0.0,  999.0,   -0.1,  999.0,  999.0,   -0.1,  999.0,   -0.3,  999.0,   -0.0,  999.0,  999.0,  999.0,  999.0,  999.0
2012/11/23 05:50,  999.0,  999.0,    0.5,    0.3,    0.4,    0.2,    0.2,  999.0,  999.0,    0.5,  999.0,    0.1,    0.3,    0.8,    0.7,    0.4,    0.3,    0.4,    0.3,    0.1,    0.3,    0.1,    0.4,   -0.0,    3.0,   -0.1,   -0.5,   -0.1,    0.1,    0.1,    0.2,    0.0,    0.0,    0.1,    0.1,   -0.3,   -0.2,   -0.1,    0.1,   -0.1,    0.0,    0.2,    0.0,    0.1,    0.1,    0.1,    0.1,    0.1,   -0.1,    0.0,   -0.0,   -0.1,    0.0,    0.1,   -0.1,    0.0,   -0.0,    0.0,    0.1,   -0.1,    0.0,   -0.1,   -0.1,   -0.1,   -0.1,   -0.2,   -0.1,  999.0,  999.0,  999.0,    0.1,    0.1,   -0.0,    0.0,  999.0,  999.0,  999.0,  999.0,  999.0,  999.0
2012/11/23 06:00,  999.0,    0.2,    0.1,    0.2,    0.4,    0.2,    0.1,   -0.0,    0.1,   -1.0,   -0.5,   -1.4,   -1.9,   -2.5,   -2.5,   -4.8,   -3.4,   -3.7,   -0.4,   -5.4,   -3.7,    0.0,   -0.1,   -2.6,   -1.2,   -0.2,   -0.1,    0.0,   -0.1,   -0.1,    0.1,   -0.1,   -0.1,   -0.1,   -0.1,   -0.1,    0.1,    0.2,    0.0,   -0.0,    0.1,   -0.1,    0.1,    0.0,    0.1,   -0.0,   -0.0,   -0.0,    0.2,   -0.1,    0.1,    0.2,   -0.1,    0.1,    0.2,    0.0,    0.0,    0.0,    0.1,    0.0,   -0.1,   -0.2,   -0.2,    0.1,   -0.0,   -0.1,   -0.0,    0.4,   -0.2,  999.0,    0.1,   -0.1,    0.2,  999.0,   -0.2,  999.0,  999.0,  999.0,  999.0,  999.0
2012/11/23 06:10,  999.0,  999.0,    0.5,    0.7,   -0.3,   -0.2,   -0.4,  999.0,  999.0,  999.0,  999.0,  999.0,   -0.5,  999.0,  999.0,  999.0,  999.0,  999.0,  999.0,   -0.1,   -4.3,    0.1,   -0.0,   -0.1,    0.0,    0.2,    0.1,    0.2,    0.1,   -0.0,    0.1,   -0.1,    0.1,    0.3,   -0.3,   -0.2,   -0.2,   -0.3,   -0.1,   -0.1,   -0.0,   -0.0,    0.0,   -0.1,   -0.0,   -0.1,    0.0,    0.1,    0.1,    0.1,   -0.2,   -0.0,    0.1,   -0.0,    0.2,    0.2,    0.1,   -0.1,   -0.1,   -0.1,   -0.1,   -0.1,   -0.2,    0.2,    0.2,    0.1,  999.0,    0.2,  999.0,  999.0,   -0.1,    0.1,  999.0,  999.0,  999.0,  999.0,  999.0,  999.0,  999.0,  999.0
2012/11/23 06:20,  999.0,  999.0,    1.5,   -0.2,    0.7,    0.3,   -0.4,   -0.5,   -0.5,   -0.3,  999.0,   -0.1,   -0.1,    0.0,   -0.1,    0.0,  999.0,   -0.3,   -0.3,    0.3,   -0.1,   -0.2,    0.0,    0.1,   -0.2,   -0.2,   -0.2,    0.1,   -0.1,   -0.5,    0.1,    0.1,   -0.6,  999.0,    0.2,    0.3,   -0.1,    0.0,    0.0,   -0.2,   -0.1,   -0.1,   -0.0,   -0.0,    0.1,   -0.1,  999.0,    0.0,    0.1,   -0.0,    0.0,    0.0,   -0.0,    0.1,    0.1,    0.2,    0.1,   -0.1,    0.1,    0.0,    0.1,   -0.0,    0.1,   -0.1,    0.1,   -0.1,    0.6,  999.0,  999.0,  999.0,    0.1,    0.1,   -0.2,   -0.0,    0.3,  999.0,  999.0,  999.0,  999.0,  999.0
2012/11/23 06:30,  999.0,  999.0,    1.2,    0.1,   -0.0,    0.4,   -0.3,   -0.4,    0.1,   -0.0,   -0.1,   -0.2,    0.7,    0.3,    1.0,  999.0,  999.0,   -0.3,   -0.4,   -0.3,    0.0,    0.1,   -0.0,   -0.1,    0.5,    0.3,    0.1,   -0.1,   -0.1,   -0.1,  999.0,   -0.3,   -0.0,   -0.0,    0.0,    0.6,  999.0,   -0.2,   -0.1,    0.1,   -0.1,   -0.1,   -0.0,   -0.0,    0.1,    0.1,    0.1,   -0.1,    0.1,   -0.1,    0.3,    0.1,    0.3,   -0.2,    0.0,   -0.1,    0.0,    0.0,   -0.1,   -0.1,   -0.3,    0.0,   -0.2,   -0.0,   -0.0,   -0.2,  999.0,    0.0,  999.0,  999.0,  999.0,  999.0,    0.2,  999.0,  999.0,  999.0,  999.0,  999.0,  999.0,  999.0
2012/11/23 06:40,  999.0,  999.0,  999.0,   -0.0,    0.2,    0.1,   -0.0,    0.1,  999.0,   -0.1,   -0.4,   -0.1,    0.1,    0.1,    0.2,   -0.0,   -0.1,   -0.1,    0.0,   -0.1,   -0.4,   -0.3,   -0.2,   -0.1,   -0.1,   -0.3,   -2.4,   -1.5,   -1.0,   -0.7,   -0.8,   -0.3,   -0.0,    0.0,   -0.0,   -0.3,  999.0,    0.0,   -0.0,    0.1,   -0.1,    0.1,    0.2,    0.1,   -0.1,   -0.0,    0.1,   -0.2,   -0.1,    0.1,   -0.1,    0.1,   -0.1,   -0.1,   -0.0,   -0.3,    0.1,   -0.2,   -0.1,   -0.0,    0.1,   -0.2,    0.2,  999.0,   -0.2,   -0.1,  999.0,   -0.2,  999.0,  999.0,  999.0,   -0.4,   -0.0,    0.2,  999.0,  999.0,  999.0,  999.0,  999.0,  999.0
2012/11/23 06:50,  999.0,  999.0,    1.1,    0.5,    0.1,    0.3,    0.0,   -0.1,    0.0,    0.2,   -0.0,   -0.0,   -0.3,   -0.4,   -0.3,   -0.3,   -0.4,   -0.3,   -0.1,    0.1,   -0.5,   -1.2,   -1.2,   -1.0,   -4.0,   -0.9,   -3.1,   -2.8,   -2.4,   -2.4,   -1.2,   -0.5,   -0.1,   -0.3,  999.0,  999.0,   -0.1,   -0.3,    0.2,   -0.0,   -0.2,   -0.1,   -0.0,   -0.0,   -0.0,   -0.4,   -0.2,   -0.1,   -0.1,   -0.1,    0.2,    0.2,   -0.0,   -0.0,   -0.2,    0.2,    0.1,   -0.1,   -0.3,    0.2,    0.4,    0.2,  999.0,   -0.4,   -0.3,   -0.4,   -0.2,    0.5,  999.0,  999.0,    0.2,    0.1,   -0.1,  999.0,  999.0,  999.0,  999.0,  999.0,  999.0,  999.0
2012/11/23 07:00,  999.0,    0.3,    0.7,    0.0,   -0.1,    0.0,   -0.1,   -0.1,   -0.0,   -0.1,   -0.2,   -0.0,    0.1,   -0.3,   -0.4,   -0.2,   -0.1,   -0.0,   -0.1,   -0.2,    0.0,   -0.2,    0.3,   -0.0,    0.2,    0.2,    0.1,   -0.0,   -0.3,   -0.1,   -0.2,   -0.2,   -0.1,  999.0,  999.0,   -0.9,   -0.2,    0.1,    0.3,    0.2,    0.1,   -0.1,   -0.0,    0.0,   -0.1,    0.1,    0.1,    0.1,   -0.0,    0.1,   -0.1,    0.1,   -0.0,   -0.1,   -0.1,    0.1,   -0.1,   -0.0,   -0.2,   -0.0,   -0.1,    0.1,    0.0,  999.0,   -0.3,   -0.1,  999.0,    0.2,    0.2,    0.1,  999.0,  999.0,   -0.3,  999.0,  999.0,  999.0,  999.0,  999.0,  999.0,  999.0
2012/11/23 07:10,  999.0,    0.6,  999.0,    0.6,   -0.1,    0.1,   -0.1,    0.1,  999.0,   -0.0,    0.2,    0.0,   -0.4,   -0.6,   -0.6,   -0.4,   -0.4,   -0.2,   -0.2,   -0.1,   -0.5,   -0.8,   -0.6,   -0.8,   -0.9,   -0.3,   -0.7,   -0.5,   -0.7,   -1.6,   -1.0,   -2.8,   -2.0,  999.0,   -0.4,   -1.3,   -1.6,   -1.0,   -0.1,    0.0,   -0.1,   -0.0,    0.1,    0.1,    0.1,    0.3,    0.1,   -0.0,   -0.2,  999.0,   -0.1,   -0.1,    0.0,   -0.2,  999.0,   -0.1,   -0.2,   -0.1,  999.0,    0.1,    0.2,    0.1,  999.0,    0.0,   -0.1,   -0.1,    0.2,    0.4,  999.0,  999.0,  999.0,   -0.0,    0.1,   -0.1,  999.0,  999.0,  999.0,  999.0,  999.0,  999.0
2012/11/23 07:20,  999.0,  999.0,   -0.3,    0.2,   -0.1,   -0.0,   -0.2,  999.0,  999.0,   -0.1,   -0.2,    0.1,   -0.1,    0.2,   -0.1,   -0.3,   -0.3,   -0.5,   -0.6,   -0.5,   -1.1,   -1.1,   -1.6,   -1.0,    0.6,    2.0,    1.7,    1.4,    1.3,    2.1,   -4.0,  999.0,  999.0,  999.0,  999.0,  999.0,   -0.3,   -0.2,  999.0,   -0.1,   -0.1,    0.1,   -0.1,   -0.0,    0.1,   -0.0,   -0.3,    0.0,   -0.1,   -0.4,   -0.0,    0.2,    0.0,    0.0,    0.0,  999.0,    0.3,    0.4,    0.1,   -0.3,   -0.0,   -0.1,    0.2,    0.1,    0.1,   -0.1,   -0.0,   -0.3,   -0.1,  999.0,  999.0,   -0.3,    0.0,  999.0,  999.0,  999.0,  999.0,  999.0,  999.0,  999.0
2012/11/23 07:30,  999.0,  999.0,   -0.1,   -0.4,   -0.2,    0.1,  999.0,    0.1,    0.0,   -0.1,   -0.0,    0.1,    5.0,    5.9,   10.4,  999.0,  999.0,  999.0,   10.3,   10.5,   17.7,   19.9,   20.3,   17.5,   21.5,   18.9,   24.4,   21.8,  999.0,  999.0,  999.0,   15.4,  999.0,  999.0,  999.0,  999.0,  999.0,  999.0,  999.0,  999.0,    0.1,   -0.0,  999.0,    0.0,   -0.2,   -0.2,   -0.1,    0.2,   -0.1,    0.0,    0.1,   -0.1,    0.1,   -0.3,   -0.1,    0.0,  999.0,  999.0,    0.0,  999.0,    0.3,    0.2,    0.3,   -0.1,    0.4,   -0.1,    0.2,  999.0,  999.0,  999.0,  999.0,  999.0,  999.0,  999.0,  999.0,  999.0,  999.0,  999.0,  999.0,  999.0
2012/11/23 07:40,  999.0,  999.0,    0.2,   -0.2,    0.1,    0.3,   -0.0,   -0.1,   -0.0,   -0.0,   -0.1,   -0.0,    1.4,    7.5,    9.0,    7.0,    6.5,    3.0,    7.0,    5.3,   10.7,   13.3,  999.0,  999.0,  999.0,   17.6,   17.4,   21.3,   17.7,   17.5,  999.0,  999.0,  999.0,  999.0,  999.0,  999.0,  999.0,  999.0,  999.0,  999.0,  999.0,  999.0,  999.0,  999.0,   -0.1,   -0.0,   -0.1,    0.2,    0.2,   -0.4,  999.0,    0.3,   -0.1,   -0.0,   -0.1,  999.0,    0.2,  999.0,   -0.5,   -0.1,    0.0,    0.0,    0.0,  999.0,  999.0,  999.0,   -0.3,  999.0,  999.0,  999.0,  999.0,  999.0,  999.0,  999.0,  999.0,  999.0,  999.0,  999.0,  999.0,  999.0
2012/11/23 07:50,  999.0,  999.0,  999.0,  999.0,  999.0,  999.0,  999.0,  999.0,  999.0,  999.0,  999.0,  999.0,  999.0,   18.4,   17.9,   14.9,   16.8,   12.8,   14.0,   15.5,  999.0,  999.0,  999.0,  999.0,  999.0,  999.0,  999.0,  999.0,  999.0,  999.0,  999.0,  999.0,  999.0,  999.0,  999.0,  999.0,  999.0,  999.0,  999.0,  999.0,  999.0,  999.0,  999.0,  999.0,  999.0,  999.0,    0.2,  999.0,  999.0,    0.3,   -0.4,   -0.0,  999.0,  999.0,   -0.2,   -0.3,    0.3,   -0.1,   -0.0,  999.0,   -0.1,   -0.1,   -0.1,   -0.4,  999.0,  999.0,  999.0,  999.0,  999.0,  999.0,  999.0,  999.0,  999.0,  999.0,  999.0,  999.0,  999.0,  999.0,  999.0,  999.0
2012/11/23 08:00,  999.0,   -0.0,    0.0,    0.1,    0.3,    0.3,    0.6,    0.3,    0.3,    0.4,    0.4,    0.1,    0.0,   -0.4,   -1.0,   -1.0,   -1.2,   -1.1,   -0.3,   -0.4,    1.2,   -0.3,    1.2,    1.3,   -0.3,   -0.6,   -1.0,   -0.2,   -0.1,   -0.2,   -0.0,   -0.2,   -0.2,   -0.1,   -0.6,    0.2,  999.0,   -0.5,    0.6,    0.2,   -0.3,   -0.2,   -0.2,   -0.5,   -0.5,   -0.7,   -0.3,   -0.6,   -1.7,  999.0,  999.0,  999.0,   -1.8,   -1.6,   -0.7,   -0.6,   -0.4,   -0.4,   -0.1,    0.2,   -0.3,   -0.3,    0.0,    0.1,   -0.1,  999.0,  999.0,  999.0,  999.0,  999.0,  999.0,  999.0,  999.0,  999.0,  999.0,  999.0,  999.0,  999.0,  999.0,  999.0
2012/11/23 08:10,  999.0,    0.4,   -0.0,    0.1,   -0.2,    0.5,  999.0,    1.5,    1.8,    1.9,    0.8,   -0.0,   -0.6,    2.9,    1.4,    1.5,    1.2,    2.0,    0.7,    0.9,    1.0,   -0.2,   -0.1,   -0.0,    0.0,  999.0,   -0.3,  999.0,  999.0,  999.0,   -0.2,  999.0,  999.0,  999.0,  999.0,  999.0,  999.0,  999.0,  999.0,   -0.1,   -0.3,   -1.0,   -1.1,   -1.5,   -1.4,  999.0,  999.0,  999.0,   -8.1,  999.0,  999.0,  999.0,   -1.4,    0.3,    0.2,   -0.1,   -0.4,   -0.0,   -0.2,    0.3,    0.0,   -0.1,    0.1,    0.1,   -0.2,  999.0,  999.0,  999.0,  999.0,  999.0,  999.0,  999.0,  999.0,  999.0,  999.0,  999.0,  999.0,  999.0,  999.0,  999.0
2012/11/23 08:20,  999.0,    0.3,   -0.1,   -0.3,   -0.3,    0.9,    0.7,    1.2,    0.6,    0.2,    3.6,    3.6,    2.7,    1.6,   -0.2,    0.6,   -0.5,   -0.5,   -0.2,   -0.3,    0.0,  999.0,  999.0,   -0.8,   -0.0,  999.0,  999.0,  999.0,  999.0,  999.0,  999.0,  999.0,  999.0,  999.0,  999.0,  999.0,  999.0,  999.0,  999.0,   26.9,   29.0,   31.2,  999.0,   34.9,  999.0,  999.0,  999.0,  -17.2,  -18.0,  -17.0,  -15.9,  -16.8,  -17.1,  999.0,  999.0,  999.0,  999.0,  999.0,  999.0,  999.0,  999.0,  999.0,  999.0,    0.7,    3.1,  999.0,  999.0,  999.0,   -3.8,  999.0,  999.0,  999.0,  999.0,  999.0,  999.0,  999.0,  999.0,  999.0,  999.0,  999.0
2012/11/23 08:30,  999.0,  999.0,    1.0,    0.3,    0.4,   -0.2,   -0.1,   -0.7,   -0.4,    0.1,  999.0,    3.4,    2.5,    2.4,    3.8,    1.9,    3.5,    2.5,    0.9,    0.4,    3.5,    4.8,   10.5,    6.9,    6.1,    9.6,   11.3,   15.0,  999.0,  999.0,  999.0,  999.0,   16.4,  999.0,   19.6,   19.8,  999.0,  999.0,  999.0,  999.0,  999.0,   30.0,   30.1,   31.8,   32.6,   33.1,   34.5,  999.0,  999.0,  999.0,  999.0,  -18.3,  -18.9,  -19.1,  -18.6,  -18.2,  999.0,  999.0,  999.0,  999.0,  999.0,  999.0,  999.0,  -16.9,  -16.9,  999.0,  999.0,  999.0,  999.0,  999.0,  999.0,  999.0,  999.0,  999.0,  999.0,  999.0,  999.0,  999.0,  999.0,  999.0
2012/11/23 08:40,  999.0,    0.3,   -0.0,    1.8,    0.3,   -0.0,   -0.2,    2.1,  999.0,  999.0,   12.2,   10.2,    5.2,    7.9,    5.2,    9.6,    9.7,   10.0,   11.5,   13.0,   11.3,   10.3,   10.8,   10.9,   11.7,   13.7,  999.0,  999.0,  999.0,  999.0,  999.0,  999.0,  999.0,   15.3,   20.9,   22.6,  999.0,  999.0,  999.0,  999.0,  999.0,  999.0,  999.0,  999.0,   31.9,   33.5,   36.0,   37.4,  999.0,  999.0,  999.0,  999.0,  999.0,  999.0,  999.0,  999.0,  999.0,  999.0,  999.0,  999.0,  999.0,  999.0,  999.0,  999.0,  999.0,  999.0,  999.0,  999.0,  999.0,  999.0,  999.0,  999.0,  999.0,  999.0,  999.0,  999.0,  999.0,  999.0,  999.0,  999.0
2012/11/23 08:50,  999.0,  999.0,  999.0,  999.0,  999.0,  999.0,  999.0,  999.0,  999.0,   10.7,   11.0,    7.6,    9.0,   11.0,   10.3,    9.8,   10.0,   10.2,   11.3,   13.4,   11.8,   13.6,   12.8,   10.0,    5.8,    8.1,    5.7,    5.8,    6.7,    7.7,    8.8,    9.1,   13.7,   17.0,   22.9,   23.3,   25.9,  999.0,  999.0,  999.0,  999.0,  999.0,  999.0,  999.0,  999.0,  999.0,  999.0,  999.0,  999.0,  999.0,  999.0,  999.0,  999.0,  999.0,  999.0,    0.5,   -0.2,   -0.4,   -0.2,  999.0,    0.2,  999.0,   -0.3,    0.3,  999.0,  999.0,   -0.0,    0.3,  999.0,  999.0,  999.0,  999.0,  999.0,  999.0,  999.0,  999.0,  999.0,  999.0,  999.0,  999.0
2012/11/23 09:00,  999.0,  999.0,   12.0,  999.0,  999.0,  999.0,  999.0,   25.0,   18.0,   14.2,   12.7,    8.4,    6.9,    6.6,    9.2,   10.5,  999.0,   12.1,   13.1,   13.2,   14.6,   14.1,   14.6,   14.5,   14.8,   14.5,   14.2,   14.6,   15.0,   15.7,   17.0,   19.4,   19.9,   20.7,   20.2,  999.0,  999.0,  999.0,  999.0,   27.2,  999.0,  999.0,  999.0,  999.0,  999.0,  999.0,  999.0,  999.0,  999.0,  999.0,  999.0,  999.0,  999.0,  999.0,   -0.2,   -0.4,  999.0,    0.3,  999.0,    0.5,   -0.1,  999.0,  999.0,   -0.1,   -0.0,    0.4,    0.1,    0.0,  999.0,  999.0,  999.0,  999.0,  999.0,  999.0,  999.0,  999.0,  999.0,  999.0,  999.0,  999.0
2012/11/23 09:10,  999.0,    4.4,    5.5,    4.6,    4.9,    2.4,    0.5,    2.0,    3.7,    5.1,    3.3,    3.9,    6.4,    5.8,    6.1,    7.5,    9.3,   10.4,   11.5,   13.3,   13.7,   14.0,   14.4,   14.4,   14.4,   14.9,   14.7,   14.6,   15.4,   17.3,   18.0,   19.4,   21.1,  999.0,  999.0,  999.0,  999.0,   29.4,  999.0,  999.0,  999.0,  999.0,  999.0,  999.0,  999.0,  999.0,  999.0,  999.0,  999.0,  999.0,  999.0,    0.1,   -0.3,   -0.1,   -0.1,   -0.1,    0.1,   -0.0,    0.1,    0.3,  999.0,   -0.0,   -0.3,   -0.4,   -0.3,   -0.4,    0.1,   -0.1,  999.0,    0.1,   -0.1,  999.0,  999.0,  999.0,  999.0,  999.0,  999.0,  999.0,  999.0,  999.0
2012/11/23 09:20,  999.0,  999.0,  999.0,   11.1,  999.0,   10.6,    6.9,    4.4,    3.1,    4.1,    2.7,    3.2,    3.3,    3.5,    5.2,    5.3,    6.8,    9.3,   10.0,   10.7,   11.7,   13.1,   13.7,   14.1,   15.1,   15.6,   15.9,   17.3,   19.0,   18.2,   19.7,   21.4,  999.0,  999.0,  999.0,  999.0,  999.0,   13.9,   14.7,   10.9,    8.1,  999.0,  999.0,   -0.0,  999.0,  999.0,   -0.1,  999.0,   -0.0,   -0.0,    0.0,   -0.2,   -0.0,    0.1,    0.0,    0.0,    0.3,   -0.3,    0.2,  999.0,   -0.6,   -0.8,   -2.3,   -0.3,   -2.2,   -1.8,   -1.1,  999.0,  999.0,   -0.3,    0.0,   -0.3,  999.0,  999.0,  999.0,  999.0,  999.0,  999.0,  999.0,  999.0
2012/11/23 09:30,  999.0,  999.0,  999.0,  999.0,    8.4,    5.0,    4.1,    5.7,    5.0,    4.6,    5.1,    5.9,    4.7,  999.0,    2.9,  999.0,    6.0,    6.5,    7.7,   13.3,   15.2,   18.1,   19.5,    6.3,    7.1,    8.3,  999.0,    8.7,  999.0,  999.0,  999.0,  999.0,   -0.2,   -0.2,   -0.2,  999.0,    0.1,    9.9,    0.2,    4.1,   -0.1,   12.3,   -0.2,   -0.1,    6.7,  999.0,    0.1,  999.0,  999.0,  999.0,  999.0,  999.0,  999.0,  999.0,  999.0,  999.0,  999.0,  999.0,  999.0,  999.0,    7.6,    7.5,    8.0,    8.7,    8.2,  999.0,  999.0,  999.0,  999.0,  999.0,  999.0,  999.0,  999.0,  999.0,  999.0,  999.0,  999.0,  999.0,  999.0,  999.0
2012/11/23 09:40,  999.0,  999.0,  999.0,  999.0,    7.3,    7.1,    7.5,    7.0,    7.9,    6.1,    6.9,    7.7,    9.8,   11.5,    8.4,  999.0,  999.0,   16.1,   16.0,   19.1,  999.0,  999.0,  999.0,  999.0,   -0.0,   -0.3,    0.1,    0.2,    0.1,   -0.0,   -0.1,   -0.0,  999.0,  999.0,  999.0,  999.0,  999.0,  999.0,  999.0,  999.0,   10.7,  999.0,   12.1,  999.0,  999.0,  999.0,   12.4,  999.0,  999.0,  999.0,  999.0,  999.0,  999.0,  999.0,  999.0,  999.0,  999.0,  999.0,  999.0,  999.0,  999.0,  999.0,  999.0,  999.0,  999.0,  999.0,  999.0,    0.1,  999.0,  999.0,   -0.1,  999.0,  999.0,  999.0,  999.0,  999.0,  999.0,  999.0,  999.0,  999.0
2012/11/23 09:50,  999.0,  999.0,   -0.1,   -0.1,    0.9,    0.3,    0.6,    0.0,   -0.1,   -0.0,  999.0,  999.0,  999.0,   10.6,   10.8,   11.5,   10.4,   12.0,   14.7,   12.6,   15.1,   12.0,   10.2,    8.0,    5.9,    6.6,    7.2,    6.7,    8.2,    7.3,    6.2,    6.3,    7.9,    6.2,    5.4,    6.1,    9.2,    6.6,   13.7,    9.8,    9.7,    9.8,  999.0,   11.3,  999.0,  999.0,    4.6,    4.0,    2.1,    1.6,    2.5,    2.4,    3.1,    2.2,   -0.0,    2.5,    0.0,    0.0,    2.0,   -0.0,   -0.7,   -0.7,   -0.7,   -0.6,   -0.1,   -0.0,    0.1,    0.1,    0.2,    0.0,    0.3,   -0.2,   -0.0,  999.0,  999.0,  999.0,  999.0,  999.0,  999.0,  999.0
2012/11/23 10:00,  999.0,  999.0,  999.0,  999.0,  999.0,  999.0,  999.0,  999.0,  999.0,   12.3,   10.4,   11.1,  999.0,   13.2,   12.9,   18.0,   12.6,   18.2,   25.3,   35.2,   25.6,   16.3,   20.3,   20.6,   20.3,   14.9,   11.3,    8.7,    7.8,    9.8,   11.0,   11.0,    9.7,   19.1,   19.9,   21.9,   23.9,   25.7,   26.9,   29.0,   24.2,   24.4,   24.9,   24.6,  999.0,  999.0,  999.0,  999.0,  -16.6,  -25.2,  -17.1,   -8.9,  -10.1,   -7.5,  999.0,  999.0,  999.0,  999.0,  999.0,    0.1,    0.0,    0.3,   -0.3,   -0.1,   -0.3,    0.1,  999.0,    0.1,    0.1,    0.3,    0.1,   -0.1,  999.0,  999.0,  999.0,  999.0,  999.0,  999.0,  999.0,  999.0
2012/11/23 10:10,  999.0,  999.0,  999.0,    8.5,    5.8,    8.5,    3.2,    6.9,    7.0,  999.0,   11.1,    7.0,  999.0,  999.0,    5.0,   13.2,   14.1,   13.3,    8.4,  999.0,   13.9,  999.0,   14.2,   16.0,   15.3,   14.2,   13.4,   12.6,   12.6,   13.0,   13.4,   14.1,   15.0,   16.4,   18.1,   20.4,   22.8,   24.4,   25.5,   27.0,   28.6,   29.5,   30.4,   30.8,   31.1,  999.0,  999.0,  999.0,  -25.6,  -24.7,  -25.3,  -26.1,  -22.1,  -18.7,  -17.4,  999.0,  999.0,  999.0,  999.0,  999.0,  999.0,  999.0,   -0.2,   -0.2,   -0.1,    0.3,    0.1,    0.2,    0.1,    0.1,    0.1,    0.3,  999.0,   -0.0,  999.0,  999.0,  999.0,  999.0,  999.0,  999.0
2012/11/23 10:20,  999.0,  999.0,  999.0,  999.0,  999.0,  999.0,  999.0,  999.0,  999.0,   16.6,   15.7,   14.2,  999.0,  999.0,    4.4,  999.0,   11.0,   11.6,   12.4,    9.9,   15.7,   11.1,   15.1,   16.1,   15.5,   13.6,   13.5,   14.1,   14.2,   14.3,   15.2,   17.1,   17.9,   19.4,   21.5,   21.7,   22.0,   22.0,   23.5,   26.0,   27.7,   28.5,   29.7,  999.0,  999.0,  999.0,  999.0,  999.0,  -23.0,  -23.7,  -25.0,  -24.9,  999.0,  999.0,  999.0,  999.0,  999.0,  999.0,  999.0,  999.0,  999.0,  999.0,  999.0,    0.1,    0.4,  999.0,  999.0,  999.0,   -0.0,   -0.0,    0.0,    0.2,    0.0,  999.0,  999.0,  999.0,  999.0,  999.0,  999.0,  999.0
2012/11/23 10:30,  999.0,  999.0,  999.0,  999.0,  999.0,  999.0,   14.3,    8.0,   10.1,    5.5,    4.8,    3.5,    2.0,  999.0,    5.4,    5.9,   11.2,   12.2,   14.9,   16.9,   16.3,   15.3,   15.0,   14.8,   15.4,   16.0,   16.2,   16.5,   17.3,   17.6,   19.0,   19.9,   19.7,   20.1,   20.9,   22.0,   23.4,   23.4,   24.5,   26.1,   28.4,   30.5,   33.6,  999.0,  999.0,  999.0,  -22.3,  -24.7,  -25.8,  -26.5,  -26.5,  -26.6,  -23.2,  -24.2,  -20.9,  -21.2,  -22.5,  999.0,  999.0,  999.0,  999.0,  999.0,  999.0,    0.1,   -0.7,   -0.6,  999.0,    0.1,    0.1,  999.0,   -0.3,  999.0,   -0.0,  999.0,  999.0,  999.0,  999.0,  999.0,  999.0,  999.0
2012/11/23 10:40,  999.0,  999.0,  999.0,  999.0,  999.0,  999.0,   -2.9,   -2.7,   -5.2,    2.9,    1.7,    3.1,    2.7,    1.9,    7.4,    7.2,    8.3,   12.2,   14.3,   17.9,   18.0,   18.6,   16.9,   16.3,   16.7,   16.5,   16.4,   16.4,   17.4,   17.4,   20.1,   19.4,   19.2,   21.0,   22.2,   22.6,   23.0,   23.5,   24.8,   27.2,   28.6,  999.0,  999.0,  999.0,  999.0,  -24.3,  -25.8,  -26.4,  -26.3,  -24.8,  999.0,  999.0,  999.0,  999.0,  999.0,  999.0,  999.0,  999.0,    0.1,   -0.1,    0.2,    0.1,  999.0,    0.1,  999.0,  999.0,    0.0,  999.0,  999.0,  999.0,    0.3,    0.1,  999.0,    0.3,  999.0,  999.0,  999.0,  999.0,  999.0,  999.0
2012/11/23 10:50,  999.0,  999.0,    5.9,    4.7,    2.8,    1.4,    1.1,    1.0,    1.9,    4.6,    3.7,    2.8,   -0.0,  999.0,    4.8,    7.2,    6.6,   10.5,   14.4,   15.0,   14.5,   13.9,   14.4,   14.6,   16.1,   16.0,   16.6,   13.5,   12.8,   18.7,   20.5,   20.0,   20.9,   20.6,   19.6,   19.3,   21.7,   24.0,   25.1,   28.2,   27.9,  999.0,  999.0,  -23.9,  -24.7,  -26.5,  -27.0,  -25.3,  -23.5,  999.0,  999.0,  999.0,  999.0,    0.0,  999.0,  999.0,   -0.4,   -0.2,   -0.1,   -0.2,    0.0,   -0.2,   -0.2,   -0.2,   -0.2,  999.0,   -0.2,  999.0,  999.0,  999.0,  999.0,  999.0,   -0.0,  999.0,  999.0,  999.0,  999.0,  999.0,  999.0,  999.0
2012/11/23 11:00,  999.0,  999.0,    5.0,  999.0,    2.8,  999.0,  999.0,  999.0,  999.0,  999.0,    0.4,    2.1,    1.3,   -0.4,    1.6,  999.0,    9.3,    7.7,    9.2,    0.0,    3.4,    0.7,    0.0,    0.0,    0.0,   -0.1,    0.1,   -0.1,   -0.1,    0.2,   -0.1,   -0.4,   11.6,  999.0,  999.0,  999.0,  999.0,  999.0,  999.0,  999.0,  999.0,  999.0,  999.0,  999.0,  999.0,  -29.2,  999.0,  999.0,  -10.8,   -0.2,  999.0,    0.1,   -0.4,   -0.2,   -0.2,    0.0,   -0.2,    0.0,   -0.0,    0.0,    0.0,   -0.1,   -0.2,   -0.2,   -0.1,    0.0,  999.0,  999.0,  999.0,  999.0,  999.0,  999.0,  999.0,  999.0,  999.0,  999.0,  999.0,  999.0,  999.0,  999.0
2012/11/23 11:10,  999.0,    1.2,    0.9,    0.8,    1.1,    1.3,    1.5,  999.0,    0.7,    1.1,  999.0,  999.0,  999.0,  999.0,  999.0,  999.0,  999.0,    0.0,   -0.0,    0.1,   -0.1,   -0.0,   -0.1,   -0.0,   -0.1,    0.1,   -0.0,   -0.2,   -0.5,   -0.4,   -0.8,   -0.3,  999.0,   -2.6,  999.0,  999.0,  999.0,  999.0,   -5.9,   -6.4,  999.0,   -6.4,  999.0,   -3.2,   -3.7,  999.0,  999.0,   -3.1,   -0.8,   -0.6,   -0.8,   -0.4,   -0.2,    0.0,   -0.3,    0.0,   -0.1,   -0.1,    0.1,    0.0,   -0.1,    0.2,   -0.1,    0.1,    0.0,    0.2,    0.3,    0.5,  999.0,  999.0,  999.0,  999.0,  999.0,  999.0,  999.0,  999.0,  999.0,  999.0,  999.0,  999.0
2012/11/23 11:20,  999.0,    0.1,    0.8,    1.4,    0.6,    0.4,    0.6,    0.5,    0.8,    0.9,    0.6,    0.5,    0.4,    0.5,    0.8,    1.3,    0.6,    0.1,    0.0,    0.1,   -0.0,    0.1,   -0.1,   -0.1,    0.0,   -0.0,   -0.2,   -0.1,   -0.0,    0.0,   -0.1,   -0.3,  999.0,  999.0,  999.0,  999.0,  999.0,  999.0,  999.0,  999.0,  999.0,  999.0,  999.0,   -1.8,  999.0,  999.0,  999.0,   -0.2,   -0.1,   -0.2,   -0.2,    0.1,   -0.0,    0.1,    0.2,   -0.0,    0.1,    0.2,    0.1,   -0.3,    0.1,   -0.1,    0.0,    0.1,    0.1,   -0.5,    0.1,   -0.2,  999.0,  999.0,  999.0,  999.0,  999.0,  999.0,  999.0,  999.0,  999.0,  999.0,  999.0,  999.0
2012/11/23 11:30,  999.0,  999.0,    0.1,    0.4,    1.7,    1.4,    1.4,    0.8,    0.9,    0.7,   -0.7,    1.1,    1.7,    2.4,    2.8,    2.2,    1.8,    1.6,    0.6,    0.4,    0.1,    0.4,    0.2,    0.1,   -0.1,   -0.1,    0.0,   -0.1,   -0.2,    0.1,   -0.4,   -0.3,   -0.5,  999.0,  999.0,  999.0,  999.0,  999.0,  999.0,  999.0,   -2.7,   -2.2,   -0.9,   -0.8,   -0.4,   -0.1,   -0.2,    0.0,    0.2,   -0.0,    0.1,    0.1,   -0.0,    0.2,    0.0,    0.3,    0.2,    0.1,    0.1,    0.1,    0.2,   -0.4,    0.4,    0.2,  999.0,    0.2,    0.1,   -0.1,  999.0,  999.0,  999.0,  999.0,  999.0,  999.0,  999.0,  999.0,  999.0,  999.0,  999.0,  999.0
2012/11/23 11:40,  999.0,   -0.1,   -0.9,   -0.1,    0.5,    1.1,    1.1,    0.3,   -0.5,    0.3,  999.0,    2.1,    2.0,    3.2,    2.3,    1.4,    1.1,    1.2,    0.6,   -0.1,    0.4,    1.0,    1.5,    0.5,    0.7,    0.7,    1.2,    0.9,    0.0,   -0.1,   -0.2,   -0.7,   -0.3,  999.0,  999.0,  999.0,  999.0,   -7.5,  999.0,  999.0,   -4.8,  999.0,   -1.3,   -1.8,   -1.1,   -0.8,   -0.7,   -0.9,   -0.6,   -0.6,   -0.4,   -0.8,   -0.4,   -0.2,   -0.2,   -0.3,   -0.1,   -0.1,    0.2,    0.2,   -0.0,   -0.2,    0.1,  999.0,    0.2,   -0.0,  999.0,    0.1,    0.4,  999.0,  999.0,  999.0,  999.0,  999.0,  999.0,  999.0,  999.0,  999.0,  999.0,  999.0
2012/11/23 11:50,  999.0,    1.5,    1.9,  999.0,  999.0,  999.0,   -1.6,   -3.0,   -0.1,   -0.9,   -0.7,    1.0,    1.7,    2.9,    2.1,    0.8,    2.2,    3.1,    1.3,    1.5,    2.5,    2.2,  999.0,    1.4,    0.9,    0.2,   -0.1,   -0.1,   -1.2,  999.0,  999.0,  999.0,  999.0,  999.0,  999.0,  999.0,  999.0,  999.0,  -13.2,  999.0,  999.0,  -15.8,  -15.8,   -5.7,   -3.7,   -3.0,   -2.4,   -2.2,   -1.9,   -1.4,   -0.9,   -0.9,   -0.2,    0.2,   -0.3,   -0.5,   -0.1,   -0.2,   -0.1,    0.0,    0.2,   -0.0,   -0.5,  999.0,   -0.5,  999.0,   -0.0,  999.0,  999.0,  999.0,  999.0,  999.0,  999.0,  999.0,  999.0,  999.0,  999.0,  999.0,  999.0,  999.0
2012/11/23 12:00,  999.0,  999.0,    0.8,   -0.3,   -1.0,  999.0,  999.0,  999.0,  999.0,    1.1,    5.7,    5.3,    3.2,    4.9,    5.8,    5.0,    2.6,    1.6,    4.3,    1.9,    1.6,    4.5,    3.5,    2.7,    6.7,  999.0,  999.0,  999.0,  999.0,  999.0,  999.0,  999.0,  999.0,  999.0,  999.0,  999.0,  999.0,  999.0,  999.0,  -26.8,  -25.9,  -25.5,  -25.6,  -25.1,  -24.1,  999.0,  999.0,  999.0,  999.0,  999.0,  999.0,  999.0,  999.0,  999.0,  999.0,  999.0,  999.0,  999.0,    0.1,   -0.0,    0.2,   -0.1,   -0.1,   -0.1,    0.2,    0.2,  999.0,  999.0,  999.0,  999.0,  999.0,  999.0,  999.0,  999.0,  999.0,  999.0,  999.0,  999.0,  999.0,  999.0
2012/11/23 12:10,  999.0,    0.2,    0.1,    0.2,    0.3,   -0.0,    0.1,    0.2,    2.5,   -1.6,   -6.0,  999.0,  999.0,  999.0,  999.0,    5.6,  999.0,    6.3,    7.9,    9.1,    8.8,    8.7,    8.6,    8.7,    9.2,    9.7,    9.6,    9.2,    9.8,   12.0,   12.5,  999.0,   19.6,   21.7,   23.5,  999.0,  999.0,  999.0,  999.0,  -26.5,  -25.7,  -26.0,  -25.7,  -25.3,  999.0,  999.0,   22.8,  999.0,   31.6,   32.7,  999.0,  999.0,  999.0,  999.0,  999.0,  999.0,    0.4,   -0.6,   -0.1,   -0.1,    0.2,    0.2,   -0.3,   -0.0,   -0.1,   -0.1,  999.0,    0.0,    0.1,  999.0,  999.0,  999.0,  999.0,  999.0,  999.0,  999.0,  999.0,  999.0,  999.0,  999.0
2012/11/23 12:20,  999.0,   -0.0,   -0.3,   -0.5,   -0.4,   -0.0,   -0.0,   -0.2,    0.5,    1.7,    2.4,    1.8,    1.1,    1.3,    1.5,    1.7,    1.7,    1.2,    1.0,    0.5,    0.2,    0.4,  999.0,   -0.3,  999.0,  999.0,   11.7,   11.1,   11.1,   12.5,   15.7,   17.9,   20.7,   23.1,   23.4,   24.1,   27.8,  999.0,  999.0,  999.0,  -26.8,   -9.1,  999.0,   31.2,  999.0,   31.9,  999.0,   32.4,   33.1,  999.0,  999.0,  999.0,  999.0,  999.0,  999.0,  999.0,  999.0,    0.1,   -0.1,    0.0,   -0.1,   -0.1,   -0.1,    0.1,  999.0,  999.0,    0.5,  999.0,  999.0,  999.0,  999.0,  999.0,  999.0,  999.0,  999.0,  999.0,  999.0,  999.0,  999.0,  999.0
2012/11/23 12:30,  999.0,    0.1,   -0.1,   -0.2,    0.1,    0.3,    0.3,    0.3,    0.2,    0.6,    1.2,    1.3,    2.4,    1.8,    0.8,    0.9,    1.7,    1.4,    1.2,    0.8,    0.2,    0.4,    0.4,   -0.2,    0.2,    0.7,  999.0,  999.0,   11.0,  999.0,  999.0,   24.8,   24.6,   25.3,   25.8,   27.2,   28.7,   26.4,  999.0,   28.7,   27.2,   28.3,   28.5,   30.6,   31.5,   31.7,   32.5,   32.5,  999.0,  999.0,  999.0,  999.0,  999.0,  999.0,  999.0,  999.0,  999.0,  999.0,   -0.5,  999.0,  999.0,   -0.5,   -0.3,   -0.1,  999.0,  999.0,  999.0,  999.0,  999.0,  999.0,  999.0,  999.0,  999.0,  999.0,  999.0,  999.0,  999.0,  999.0,  999.0,  999.0
2012/11/23 12:40,  999.0,  999.0,    0.0,   -0.2,   -0.1,    0.0,   -0.0,   -0.2,   -0.2,    0.1,    0.3,    0.6,    0.5,    0.9,    0.7,    0.6,    0.4,    0.7,    1.0,    0.8,    0.5,    0.5,    0.9,    0.6,    0.4,    0.4,  999.0,    0.2,  999.0,  999.0,  999.0,  999.0,   26.3,   29.9,   31.1,   30.1,   28.4,   28.7,  999.0,   29.2,   28.7,   28.6,   28.3,   28.5,   29.1,   29.7,   31.1,   31.2,   33.0,   31.5,   30.9,   31.5,  999.0,  999.0,  999.0,  999.0,  999.0,  999.0,  999.0,  999.0,  999.0,  999.0,  999.0,  999.0,   -0.0,  999.0,  999.0,  999.0,  999.0,  999.0,  999.0,  999.0,  999.0,  999.0,  999.0,  999.0,  999.0,  999.0,  999.0,  999.0
2012/11/23 12:50,  999.0,    0.0,   -0.1,    0.1,    0.1,   -0.2,   -0.1,   -0.3,   -0.5,   -0.1,    0.0,    1.2,    2.1,    2.4,    1.6,    2.1,    3.4,    4.8,    3.5,    2.0,    0.3,  999.0,    2.7,  999.0,    8.1,    6.6,   10.0,   10.0,  999.0,  999.0,  999.0,  999.0,  999.0,  999.0,   29.7,   30.3,   29.6,  999.0,   26.9,   29.8,   31.6,   30.4,   31.3,   30.3,   29.0,   29.3,   29.7,   30.5,   32.2,   31.8,   32.8,   34.2,   33.6,   31.5,  999.0,  999.0,  999.0,  999.0,  999.0,  999.0,  999.0,  999.0,  999.0,  999.0,  999.0,  999.0,  999.0,  999.0,  999.0,  999.0,  999.0,  999.0,  999.0,  999.0,  999.0,  999.0,  999.0,  999.0,  999.0,  999.0
2012/11/23 13:00,  999.0,    0.3,   -0.3,   -0.0,    0.0,   -0.1,   -0.1,    0.2,    0.2,    1.5,  999.0,    3.9,    8.3,    6.5,    4.2,    6.3,    7.7,  999.0,  999.0,    4.6,  999.0,  999.0,    7.6,    6.1,    6.9,    8.7,   10.1,   10.5,  999.0,   15.9,   19.1,  999.0,  999.0,   27.3,   27.8,   28.3,   29.9,   29.4,   28.7,   30.0,   29.9,  999.0,   28.7,   29.1,   31.0,  999.0,   29.4,   31.2,   31.9,   32.9,   35.0,   35.1,   35.7,   36.1,  999.0,  999.0,  999.0,  999.0,  999.0,  999.0,  999.0,  999.0,  999.0,  999.0,  999.0,  999.0,  999.0,  999.0,  999.0,  999.0,  999.0,  999.0,  999.0,  999.0,  999.0,  999.0,  999.0,  999.0,  999.0,  999.0
2012/11/23 13:10,  999.0,    0.1,    0.2,    0.1,    0.1,    0.1,    0.1,    0.1,    0.4,    0.7,    2.1,    2.3,    2.4,    2.5,    1.6,    3.9,    4.3,    5.2,    6.3,    5.4,    5.6,  999.0,  999.0,    3.7,    5.2,    6.0,    5.4,    7.5,   10.5,   15.0,   18.6,   20.5,   21.5,   24.6,   26.6,   26.9,   14.0,    7.7,    5.9,    0.5,    0.9,   19.1,   21.4,   16.1,   15.3,   22.4,   22.4,   23.4,   23.9,   30.6,   32.0,   32.3,   33.4,  999.0,  999.0,  999.0,  999.0,  999.0,  999.0,  999.0,  999.0,  999.0,  999.0,  999.0,  999.0,  999.0,  999.0,  999.0,  999.0,  999.0,  999.0,  999.0,  999.0,  999.0,  999.0,  999.0,  999.0,  999.0,  999.0,  999.0
2012/11/23 13:20,  999.0,    0.2,    0.6,    0.4,   -0.0,    0.2,    0.2,   -0.1,    0.4,    0.8,    2.3,    2.2,    3.9,    4.2,  999.0,  999.0,    4.6,  999.0,  999.0,  999.0,  999.0,    9.3,    6.8,    5.7,    7.7,    7.8,    7.3,    9.8,   15.2,   18.1,   22.1,   22.1,   23.4,   25.4,   26.2,   28.3,  999.0,    0.8,  -10.2,   -9.9,   27.2,   27.2,   28.0,   30.2,   31.4,   30.6,   30.1,   30.3,   30.3,   30.4,   32.0,   33.7,   34.1,   33.2,  999.0,  999.0,  999.0,  999.0,  999.0,  999.0,  999.0,  999.0,  999.0,  999.0,  999.0,  999.0,  999.0,  999.0,  999.0,  999.0,  999.0,  999.0,  999.0,  999.0,  999.0,  999.0,  999.0,  999.0,  999.0,  999.0
2012/11/23 13:30,  999.0,    0.4,  999.0,  999.0,    1.1,    0.4,    0.1,    0.2,    1.9,    0.3,    2.8,    4.0,    6.3,    5.9,    7.6,  999.0,   10.4,   10.0,   12.5,   10.4,   10.3,    7.5,    7.3,    5.6,    5.8,    7.4,    7.5,  999.0,  999.0,   15.9,   17.6,   19.8,   23.0,   24.9,   27.4,   26.5,   26.3,    8.7,   -0.3,  999.0,   10.1,    9.4,   26.0,   26.9,   27.0,   28.3,   28.7,   28.9,   29.1,   29.9,   33.1,   34.7,  999.0,   31.8,  999.0,  999.0,  999.0,  999.0,  999.0,  999.0,  999.0,  999.0,  999.0,  999.0,  999.0,  999.0,  999.0,  999.0,  999.0,  999.0,  999.0,  999.0,  999.0,  999.0,  999.0,  999.0,  999.0,  999.0,  999.0,  999.0
2012/11/23 13:40,  999.0,    2.0,    2.2,    2.0,    3.6,    2.4,    1.6,    0.5,    0.5,    0.5,    2.0,    1.4,  999.0,    1.0,    3.0,    7.0,    8.9,    7.6,    7.8,    8.0,    6.6,    5.6,    5.6,    5.8,    5.6,    7.3,  999.0,  999.0,  999.0,  999.0,  999.0,  999.0,   23.5,   26.1,   26.8,   26.7,   27.3,   25.8,   26.3,   24.9,   27.4,   27.3,   27.2,   27.0,   27.6,   27.7,   28.9,   29.9,   29.7,   31.6,   32.2,  999.0,  999.0,  999.0,  999.0,  999.0,  999.0,  999.0,  999.0,  999.0,  999.0,  999.0,  999.0,  999.0,  999.0,  999.0,  999.0,  999.0,  999.0,  999.0,  999.0,  999.0,  999.0,  999.0,  999.0,  999.0,  999.0,  999.0,  999.0,  999.0
2012/11/23 13:50,  999.0,    0.6,    0.7,    2.4,    3.7,    2.1,    1.1,    0.2,    1.8,    2.3,    1.5,    1.3,    1.4,    0.4,    2.1,    4.3,    5.2,    3.5,    6.9,    6.7,    8.4,    6.0,    5.8,    5.5,    7.2,  999.0,  999.0,  999.0,  999.0,  999.0,  999.0,  999.0,  999.0,  999.0,  999.0,  999.0,  999.0,  999.0,  999.0,   25.5,   25.7,   26.4,   25.5,   25.0,   24.3,   25.6,  999.0,  999.0,  999.0,  999.0,  999.0,  999.0,  999.0,  999.0,  999.0,  999.0,  999.0,  999.0,  999.0,  999.0,  999.0,  999.0,  999.0,  999.0,  999.0,  999.0,  999.0,  999.0,  999.0,  999.0,  999.0,  999.0,  999.0,  999.0,  999.0,  999.0,  999.0,  999.0,  999.0,  999.0
2012/11/23 14:00,  999.0,    0.5,    0.5,    1.6,    3.6,    1.9,    1.5,    0.6,    2.4,    1.4,    1.2,    0.9,    2.7,    1.9,    2.4,    5.3,    5.3,    4.1,    7.6,    7.9,  999.0,  999.0,    5.3,    5.8,  999.0,  999.0,  999.0,  999.0,  999.0,  999.0,  999.0,  999.0,  999.0,  999.0,  999.0,  999.0,  999.0,  999.0,  999.0,  999.0,  999.0,  999.0,  999.0,  999.0,  999.0,  999.0,  999.0,  999.0,  999.0,  999.0,  999.0,  999.0,  999.0,  999.0,  999.0,  999.0,  999.0,  999.0,  999.0,  999.0,  999.0,  999.0,  999.0,  999.0,  999.0,  999.0,  999.0,  999.0,  999.0,  999.0,  999.0,  999.0,  999.0,  999.0,  999.0,  999.0,  999.0,  999.0,  999.0,  999.0
2012/11/23 14:10,  999.0,    1.0,    0.3,    1.2,    2.2,    1.4,    0.8,    0.9,    3.1,    4.1,    1.5,    1.1,    2.8,    1.4,  999.0,    5.8,    5.5,    7.3,    9.4,    9.8,    7.9,  999.0,  999.0,  999.0,  999.0,  999.0,  999.0,  999.0,  999.0,  999.0,  999.0,  999.0,  999.0,  999.0,  999.0,  999.0,  999.0,  999.0,  999.0,  999.0,  999.0,  999.0,  999.0,  999.0,  999.0,  999.0,  999.0,  999.0,  999.0,  999.0,  999.0,  999.0,  999.0,  999.0,  999.0,  999.0,  999.0,  999.0,  999.0,  999.0,  999.0,  999.0,  999.0,  999.0,  999.0,  999.0,  999.0,  999.0,  999.0,  999.0,  999.0,  999.0,  999.0,  999.0,  999.0,  999.0,  999.0,  999.0,  999.0,  999.0
2012/11/23 14:20,  999.0,    0.1,   -0.1,    0.5,    1.0,    0.9,    0.6,    0.7,    1.8,    2.7,    1.9,    0.9,    1.3,    3.5,  999.0,    2.8,    5.2,    4.4,    5.6,    3.4,    1.0,   -0.6,  999.0,    0.7,   -0.2,    0.3,  999.0,   -0.6,  999.0,  999.0,  999.0,  999.0,  999.0,  999.0,  999.0,  999.0,  999.0,  999.0,  999.0,  999.0,  999.0,  999.0,  999.0,  999.0,  999.0,  999.0,  999.0,  999.0,  999.0,  999.0,  999.0,  999.0,  999.0,  999.0,  999.0,  999.0,  999.0,  999.0,  999.0,  999.0,  999.0,  999.0,  999.0,  999.0,  999.0,  999.0,  999.0,  999.0,  999.0,  999.0,  999.0,  999.0,  999.0,  999.0,  999.0,  999.0,  999.0,  999.0,  999.0,  999.0
2012/11/23 14:30,  999.0,   -0.0,   -0.4,    0.0,    0.0,    0.1,    0.6,    0.4,    0.5,    0.7,    1.1,    0.3,    0.6,  999.0,    4.1,    2.5,    2.9,    5.0,    5.0,    0.9,    1.2,    0.7,   -0.0,    0.2,   -0.1,   -0.2,  999.0,  999.0,  999.0,  999.0,  999.0,  999.0,  999.0,  999.0,  999.0,  999.0,  999.0,  999.0,  999.0,  999.0,  999.0,  999.0,  999.0,  999.0,  999.0,  999.0,  999.0,  999.0,  999.0,  999.0,  999.0,  999.0,  999.0,  999.0,  999.0,  999.0,  999.0,  999.0,  999.0,  999.0,  999.0,  999.0,  999.0,  999.0,  999.0,  999.0,  999.0,  999.0,  999.0,  999.0,  999.0,  999.0,  999.0,  999.0,  999.0,  999.0,  999.0,  999.0,  999.0,  999.0
2012/11/23 14:40,  999.0,   -0.0,   -0.2,   -0.1,    0.2,    0.2,    0.4,    0.0,    0.1,    0.8,    1.0,    0.9,    1.0,    2.8,    2.7,    2.6,    5.1,    5.0,    5.3,    4.3,    1.0,    1.6,    0.7,    0.3,    0.1,    0.5,  999.0,  999.0,  999.0,    0.3,    0.4,  999.0,  999.0,  999.0,  999.0,  999.0,  999.0,  999.0,  999.0,  999.0,  999.0,  999.0,  999.0,  999.0,  999.0,  999.0,  999.0,  999.0,  999.0,  999.0,  999.0,  999.0,  999.0,  999.0,  999.0,  999.0,  999.0,  999.0,  999.0,  999.0,  999.0,  999.0,  999.0,  999.0,  999.0,  999.0,  999.0,  999.0,  999.0,  999.0,  999.0,  999.0,  999.0,  999.0,  999.0,  999.0,  999.0,  999.0,  999.0,  999.0
2012/11/23 14:50,  999.0,    0.0,    0.2,    0.2,    0.3,    0.2,    0.4,   -0.0,    0.0,    0.7,    1.3,    1.1,    0.7,    2.4,    2.9,    2.9,    4.2,    5.6,    5.5,    2.6,    0.5,    0.4,    0.4,   -0.1,    0.1,    0.0,  999.0,  999.0,  999.0,  999.0,  999.0,  999.0,  999.0,  999.0,    0.2,  999.0,  999.0,   19.4,   19.7,   19.1,  999.0,  999.0,  999.0,  999.0,  999.0,  999.0,  999.0,  999.0,  999.0,  999.0,  999.0,  999.0,  999.0,  999.0,  999.0,  999.0,  999.0,  999.0,  999.0,  999.0,  999.0,  999.0,  999.0,  999.0,  999.0,  999.0,  999.0,  999.0,  999.0,  999.0,  999.0,  999.0,  999.0,   -0.1,  999.0,  999.0,  999.0,  999.0,  999.0,  999.0
2012/11/23 15:00,  999.0,    0.4,   -0.0,    0.0,    0.0,    0.1,    0.7,    0.3,    1.2,    1.5,    0.8,    0.9,    1.2,    4.0,    2.5,    2.7,    3.3,    4.1,    3.6,  999.0,  999.0,   -0.1,    0.2,    0.2,   -0.3,   -0.2,  999.0,  999.0,  999.0,  999.0,  999.0,  999.0,  999.0,  999.0,  999.0,  999.0,  999.0,   20.6,  999.0,  999.0,  999.0,  999.0,  999.0,  999.0,  999.0,  999.0,  999.0,  999.0,  999.0,  999.0,  999.0,  999.0,  999.0,  999.0,  999.0,  999.0,  999.0,  999.0,  999.0,  999.0,  999.0,  999.0,  999.0,  999.0,  999.0,  999.0,  999.0,  999.0,  999.0,  999.0,  999.0,  999.0,  999.0,    0.1,  999.0,  999.0,  999.0,  999.0,  999.0,  999.0
2012/11/23 15:10,  999.0,   -0.2,   -0.3,    0.5,    0.4,    0.4,    0.4,    0.3,    1.6,    3.2,  999.0,    4.5,  999.0,    4.3,    3.3,    3.3,    2.4,    2.1,    3.2,    6.7,    6.4,    0.5,    0.4,    0.0,    0.2,    0.2,    0.2,  999.0,  999.0,  999.0,  999.0,  999.0,  999.0,  999.0,  999.0,  999.0,  999.0,   19.9,  999.0,   19.5,  999.0,  999.0,  999.0,  999.0,  999.0,  999.0,  999.0,  999.0,  999.0,  999.0,  999.0,  999.0,  999.0,  999.0,  999.0,  999.0,  999.0,  999.0,  999.0,  999.0,  999.0,  999.0,  999.0,  999.0,  999.0,  999.0,  999.0,  999.0,  999.0,  999.0,  999.0,  999.0,  999.0,  999.0,  999.0,  999.0,  999.0,  999.0,  999.0,  999.0
2012/11/23 15:20,  999.0,    0.1,   -0.1,   -0.1,    0.7,    0.6,    0.6,    1.2,  999.0,  999.0,    2.1,  999.0,    4.2,    3.6,    3.2,    3.0,    3.6,    4.5,    6.1,    7.0,    5.6,    2.5,    0.4,    0.2,    0.2,   -0.2,    0.1,  999.0,  999.0,  999.0,  999.0,   -0.5,  999.0,  999.0,  999.0,  999.0,  999.0,  999.0,  999.0,  999.0,  999.0,  999.0,  999.0,  999.0,  999.0,  999.0,  999.0,   -0.2,  999.0,  999.0,  999.0,  999.0,  999.0,  999.0,  999.0,  999.0,  999.0,  999.0,  999.0,  999.0,  999.0,  999.0,  999.0,  999.0,  999.0,  999.0,  999.0,  999.0,  999.0,  999.0,  999.0,  999.0,  999.0,  999.0,  999.0,  999.0,  999.0,  999.0,  999.0,  999.0
2012/11/23 15:30,  999.0,    0.0,   -0.0,    0.1,    0.1,    0.3,    0.3,    0.5,    0.7,    3.6,    4.9,    5.6,    4.9,    5.1,    5.7,    6.0,    6.8,  999.0,  999.0,    3.6,    2.6,    0.0,    0.0,   -0.1,    0.0,   -0.1,  999.0,    0.2,    0.0,   -0.3,   -0.1,   -0.0,    0.0,   -0.1,  999.0,  999.0,  999.0,  999.0,  999.0,  999.0,  999.0,  999.0,  999.0,  999.0,  999.0,    0.1,  999.0,  999.0,  999.0,  999.0,  999.0,  999.0,  999.0,  999.0,  999.0,  999.0,  999.0,  999.0,  999.0,  999.0,  999.0,  999.0,  999.0,  999.0,  999.0,  999.0,  999.0,  999.0,  999.0,  999.0,  999.0,  999.0,  999.0,  999.0,  999.0,  999.0,  999.0,  999.0,  999.0,  999.0
2012/11/23 15:40,  999.0,    0.6,    0.8,    2.1,    2.5,    1.9,    1.9,    1.8,    2.6,    5.6,    7.1,    7.8,    6.8,    6.5,    7.4,    8.3,    8.0,    5.6,    4.0,    1.2,    0.1,    0.2,  999.0,    0.4,   -0.0,  999.0,    0.1,  999.0,    0.1,  999.0,    0.1,   -0.1,    0.1,  999.0,  999.0,  999.0,  999.0,  999.0,  999.0,  999.0,  999.0,  999.0,  999.0,  999.0,  999.0,  999.0,  999.0,  999.0,  999.0,  999.0,  999.0,  999.0,  999.0,  999.0,  999.0,  999.0,  999.0,  999.0,  999.0,  999.0,  999.0,  999.0,  999.0,  999.0,  999.0,  999.0,  999.0,  999.0,  999.0,  999.0,  999.0,  999.0,  999.0,  999.0,  999.0,  999.0,  999.0,  999.0,  999.0,  999.0
2012/11/23 15:50,  999.0,    0.5,   -0.2,    2.4,    2.2,    1.5,    0.9,    1.3,    2.4,    3.8,    5.7,    5.9,    5.9,    6.0,    6.5,    7.8,    7.9,  999.0,  999.0,  999.0,    0.5,    0.1,    0.2,  999.0,  999.0,  999.0,  999.0,    0.1,  999.0,  999.0,  999.0,  999.0,  999.0,  999.0,  999.0,  999.0,  999.0,  999.0,  999.0,  999.0,  999.0,  999.0,  999.0,  999.0,  999.0,  999.0,  999.0,  999.0,  999.0,  999.0,  999.0,  999.0,  999.0,  999.0,  999.0,  999.0,  999.0,  999.0,  999.0,  999.0,  999.0,  999.0,  999.0,  999.0,  999.0,  999.0,  999.0,  999.0,  999.0,  999.0,  999.0,  999.0,  999.0,  999.0,  999.0,  999.0,  999.0,  999.0,  999.0,  999.0
2012/11/23 16:00,  999.0,    0.4,    0.3,    1.0,    1.2,  999.0,  999.0,   -0.1,   -0.5,   -0.0,  999.0,    3.7,    4.5,    6.3,    5.4,    5.2,  999.0,  999.0,  999.0,  999.0,    0.4,    0.0,    0.4,   -0.3,   -0.5,   -0.9,   -0.8,   -0.4,   -0.1,  999.0,  999.0,  999.0,  999.0,  999.0,  999.0,  999.0,  999.0,  999.0,  999.0,  999.0,  999.0,  999.0,  999.0,  999.0,  999.0,  999.0,  999.0,  999.0,  999.0,  999.0,  999.0,  999.0,  999.0,  999.0,  999.0,  999.0,  999.0,  999.0,  999.0,  999.0,  999.0,  999.0,  999.0,  999.0,  999.0,  999.0,  999.0,  999.0,  999.0,  999.0,  999.0,  999.0,  999.0,  999.0,  999.0,  999.0,  999.0,  999.0,  999.0,  999.0
2012/11/23 16:10,  999.0,    0.4,   -0.2,    0.3,    1.0,    2.8,  999.0,  999.0,  999.0,  999.0,    5.0,    6.2,    5.4,    6.3,    6.8,  999.0,  999.0,    1.0,   -0.1,    0.1,    0.3,   -0.3,    0.3,   -0.6,    0.2,  999.0,   -0.4,  999.0,   -0.4,  999.0,  999.0,    0.2,  999.0,  999.0,  999.0,  999.0,  999.0,  999.0,  999.0,  999.0,  999.0,  999.0,  999.0,  999.0,  999.0,  999.0,  999.0,  999.0,  999.0,  999.0,  999.0,  999.0,  999.0,  999.0,  999.0,  999.0,  999.0,  999.0,  999.0,  999.0,  999.0,  999.0,  999.0,  999.0,  999.0,  999.0,  999.0,  999.0,  999.0,  999.0,  999.0,  999.0,  999.0,  999.0,  999.0,  999.0,  999.0,  999.0,  999.0,  999.0
2012/11/23 16:20,  999.0,    0.2,  999.0,    0.2,    0.4,    0.8,    1.6,    1.6,    3.6,    1.4,    3.0,    5.0,    4.9,    4.9,    4.3,    3.7,    2.1,    0.9,    0.4,    0.1,    0.2,    0.2,    0.3,   -0.3,    0.1,    0.2,    0.7,   -0.2,    0.4,    0.0,    0.1,    0.0,   -0.3,  999.0,  999.0,  999.0,  999.0,  999.0,  999.0,  999.0,    0.0,  999.0,   -0.3,   -0.2,  999.0,  999.0,  999.0,   -0.0,  999.0,  999.0,  999.0,  999.0,  999.0,  999.0,  999.0,  999.0,  999.0,  999.0,  999.0,  999.0,  999.0,  999.0,  999.0,  999.0,  999.0,  999.0,  999.0,  999.0,  999.0,  999.0,  999.0,  999.0,  999.0,  999.0,  999.0,  999.0,  999.0,  999.0,  999.0,  999.0
2012/11/23 16:30,  999.0,    0.3,    0.7,    0.5,    0.4,    0.6,    0.7,    2.3,    3.7,    2.9,    1.9,    2.0,    3.5,    4.7,    5.2,    5.5,    7.7,    3.1,    1.1,    0.6,    0.7,    0.3,  999.0,    0.5,   -0.1,    0.3,    0.2,   -0.1,   -0.0,   -0.1,    0.4,  999.0,   -0.0,  999.0,  999.0,  999.0,  999.0,  999.0,  999.0,    0.1,   -0.0,  999.0,  999.0,    0.0,  999.0,    0.3,  999.0,    0.3,  999.0,  999.0,  999.0,   -0.1,  999.0,  999.0,  999.0,    0.1,   -0.1,  999.0,  999.0,  999.0,  999.0,  999.0,  999.0,  999.0,  999.0,  999.0,  999.0,  999.0,  999.0,  999.0,  999.0,  999.0,  999.0,  999.0,  999.0,  999.0,  999.0,  999.0,  999.0,  999.0
2012/11/23 16:40,  999.0,   -0.1,  999.0,   -0.1,    0.3,    0.3,    0.2,    0.4,    1.7,    1.6,    0.4,   -0.2,    1.8,    3.6,    3.6,    4.4,    4.7,    2.3,    1.9,    0.3,    0.2,    0.4,    1.7,    1.1,   -0.1,   -0.0,    0.1,    0.0,   -0.1,   -0.2,    0.3,   -0.0,  999.0,  999.0,  999.0,  999.0,  999.0,  999.0,  999.0,  999.0,  999.0,  999.0,  999.0,  999.0,  999.0,  999.0,  999.0,   -0.2,  999.0,  999.0,  999.0,  999.0,  999.0,  999.0,  999.0,  999.0,  999.0,  999.0,  999.0,  999.0,  999.0,  999.0,  999.0,  999.0,  999.0,  999.0,  999.0,  999.0,  999.0,  999.0,  999.0,  999.0,  999.0,  999.0,  999.0,  999.0,  999.0,  999.0,  999.0,  999.0
2012/11/23 16:50,  999.0,    0.4,    0.4,   -0.1,   -0.1,   -0.1,   -0.2,   -0.3,    0.1,    0.1,    0.3,    0.3,    0.7,    1.2,    1.1,  999.0,    1.1,    1.1,    0.8,    1.1,    0.5,    1.2,  999.0,    1.4,    1.0,    0.5,    0.6,   -0.1,   -0.2,    0.1,   -0.1,    0.1,  999.0,    0.4,  999.0,    0.1,  999.0,  999.0,  999.0,  999.0,   -0.8,  999.0,  999.0,  999.0,  999.0,    0.4,  999.0,    0.3,    0.1,  999.0,  999.0,  999.0,  999.0,  999.0,  999.0,  999.0,  999.0,  999.0,  999.0,  999.0,  999.0,  999.0,  999.0,  999.0,  999.0,  999.0,  999.0,    0.6,  999.0,  999.0,  999.0,  999.0,    0.4,    0.3,  999.0,  999.0,  999.0,  999.0,  999.0,  999.0
2012/11/23 17:00,  999.0,    0.0,   -0.3,   -0.2,   -0.2,   -0.5,   -0.1,   -0.3,   -0.3,    0.1,    0.1,    0.5,    0.3,   -0.1,    0.2,  999.0,    1.1,  999.0,    1.6,    0.7,    0.9,    0.2,    0.1,    0.3,    0.7,    2.0,    1.4,    1.5,    0.1,    0.0,    0.3,    0.0,   -0.2,  999.0,    0.2,    0.6,   -0.3,  999.0,  999.0,  999.0,   -0.5,  999.0,  999.0,  999.0,  999.0,  999.0,  999.0,  999.0,  999.0,  999.0,  999.0,  999.0,  999.0,  999.0,  999.0,  999.0,  999.0,  999.0,  999.0,  999.0,  999.0,  999.0,  999.0,  999.0,  999.0,  999.0,  999.0,   -0.0,  999.0,  999.0,  999.0,  999.0,  999.0,  999.0,  999.0,  999.0,  999.0,  999.0,  999.0,  999.0
2012/11/23 17:10,  999.0,  999.0,   -0.1,   -0.3,   -0.3,   -0.1,    0.2,   -0.5,   -0.3,    0.0,    0.2,    0.3,    0.8,    1.3,    1.1,    1.3,    1.8,    1.5,    0.6,    1.2,    1.3,    0.7,    0.5,    0.1,    0.2,    0.6,  999.0,  999.0,  999.0,    0.5,   -0.1,   -0.4,  999.0,  999.0,  999.0,  999.0,  999.0,    0.0,  999.0,  999.0,   -0.7,  999.0,  999.0,  999.0,  999.0,  999.0,  999.0,   -0.2,   -0.2,  999.0,  999.0,    0.0,  999.0,  999.0,    0.0,  999.0,  999.0,  999.0,  999.0,  999.0,  999.0,  999.0,  999.0,  999.0,  999.0,  999.0,  999.0,    0.0,  999.0,  999.0,    0.2,  999.0,  999.0,    0.0,  999.0,  999.0,  999.0,  999.0,  999.0,  999.0
2012/11/23 17:20,  999.0,  999.0,    1.0,    0.8,    0.4,    1.3,   -0.2,    1.9,    1.6,    2.9,    1.8,    0.7,    0.3,    0.4,    0.4,    0.4,    0.5,    0.9,    1.6,    2.3,    1.2,    0.9,    0.3,    0.3,    0.8,  999.0,    0.2,  999.0,    0.2,  999.0,    0.1,    0.1,    0.1,  999.0,   -0.1,    0.1,   -0.1,   -0.2,  999.0,  999.0,   -0.1,  999.0,  999.0,  999.0,  999.0,  999.0,  999.0,    0.4,  999.0,   -0.2,  999.0,  999.0,  999.0,  999.0,   -0.0,  999.0,  999.0,  999.0,  999.0,  999.0,  999.0,  999.0,  999.0,  999.0,  999.0,  999.0,  999.0,  999.0,  999.0,  999.0,  999.0,  999.0,  999.0,   -0.7,  999.0,  999.0,  999.0,  999.0,  999.0,  999.0
2012/11/23 17:30,  999.0,    0.7,    0.7,    1.6,    2.9,    4.2,  999.0,  999.0,  999.0,  999.0,  999.0,  999.0,  999.0,  999.0,  999.0,  999.0,  999.0,  999.0,    7.8,  999.0,    1.2,    0.7,  999.0,    2.1,    0.8,    1.3,    0.5,    0.1,   -0.1,   -0.1,    0.2,    0.3,    0.0,  999.0,    0.4,  999.0,  999.0,  999.0,  999.0,  999.0,  999.0,  999.0,  999.0,  999.0,  999.0,  999.0,  999.0,    0.2,  999.0,  999.0,  999.0,  999.0,  999.0,  999.0,  999.0,  999.0,  999.0,  999.0,  999.0,  999.0,  999.0,  999.0,  999.0,  999.0,  999.0,  999.0,  999.0,  999.0,  999.0,  999.0,  999.0,  999.0,  999.0,  999.0,  999.0,  999.0,  999.0,  999.0,  999.0,  999.0
2012/11/23 17:40,  999.0,    0.4,    0.3,    0.7,    0.4,    0.8,  999.0,  999.0,   -0.0,    0.7,    0.7,    2.5,    1.1,    1.0,    1.7,    2.7,    2.8,    2.7,    3.0,  999.0,    0.0,   -0.0,    0.2,   -0.2,    0.1,    0.1,    0.0,    0.4,    0.3,   -0.1,    0.0,   -0.0,    0.1,    0.1,   -0.3,   -0.3,   -0.3,   -0.2,   -0.1,    0.4,   -0.3,    0.1,    0.2,    0.0,    0.2,  999.0,    0.1,    0.0,   -0.1,   -0.1,   -0.2,   -0.1,   -0.0,   -0.5,   -0.1,    0.3,    0.1,   -0.1,  999.0,  999.0,    2.5,    0.1,  999.0,  999.0,  999.0,  999.0,  999.0,  999.0,  999.0,  999.0,  999.0,  999.0,  999.0,  999.0,  999.0,  999.0,  999.0,  999.0,  999.0,  999.0
2012/11/23 17:50,  999.0,    0.1,    0.4,    1.0,    1.1,    3.1,    5.5,  999.0,    5.4,    7.3,    6.1,    5.1,    4.4,    5.5,    6.3,    5.9,    5.9,    5.3,    6.0,  999.0,    3.9,    1.1,    0.4,    0.3,    0.5,   -0.1,    0.2,    0.0,    0.1,    0.1,    0.1,    0.2,   -0.0,   -0.1,    0.1,    0.3,    0.2,    0.6,   -0.0,   -0.3,   -0.7,  999.0,   -0.4,  999.0,   -0.1,  999.0,   -0.1,  999.0,   -1.4,  999.0,  999.0,  999.0,  999.0,  999.0,  999.0,  999.0,  999.0,    3.9,  999.0,  999.0,  999.0,    1.7,  999.0,    4.2,  999.0,  999.0,  999.0,  999.0,  999.0,  999.0,  999.0,  999.0,  999.0,  999.0,  999.0,  999.0,  999.0,  999.0,  999.0,  999.0
2012/11/23 18:00,  999.0,   -0.3,  999.0,    0.3,    1.5,    3.8,    5.4,    3.5,    5.9,    5.6,    5.8,    5.7,    4.7,    5.0,    5.1,    5.4,    5.1,    4.2,    4.1,    5.3,    5.2,  999.0,  999.0,    0.8,    0.1,    0.3,   -0.0,    0.1,    0.0,    0.1,    0.3,    0.2,    0.1,    0.0,   -0.1,    0.0,   -0.2,  999.0,    0.2,    0.0,   -0.5,   -0.3,  999.0,   -0.0,    0.3,    0.2,   -0.1,  999.0,   -0.3,   -2.3,   -2.8,   -3.7,   -0.1,   -0.5,   -0.0,   -0.4,    0.1,    0.9,    0.5,  999.0,  999.0,  999.0,  999.0,  999.0,  999.0,  999.0,  999.0,  999.0,  999.0,  999.0,  999.0,  999.0,  999.0,   -0.0,  999.0,  999.0,  999.0,  999.0,  999.0,  999.0
2012/11/23 18:10,  999.0,    0.2,    0.4,    0.8,    2.0,    0.7,    0.8,  999.0,    4.1,    6.1,    8.0,    6.2,    5.4,    5.3,    6.1,    6.4,    5.8,    4.2,  999.0,  999.0,  999.0,   -0.3,  999.0,   -0.4,   -0.2,   -0.1,   -0.3,   -0.1,   -0.1,   -0.3,   -0.0,    0.1,    0.1,   -0.0,   -0.1,    0.4,    0.1,    0.1,    0.4,    0.1,   -0.5,   -0.5,   -0.2,  999.0,   -0.1,    0.1,    0.1,    0.0,   -0.2,   -0.7,   -0.1,    0.3,    0.2,   -0.2,    0.0,   -0.2,   -0.2,   -0.2,   -0.4,  999.0,   -0.3,   -0.0,   -0.2,   -0.2,  999.0,  999.0,  999.0,  999.0,    0.5,  999.0,  999.0,  999.0,    0.3,   -0.1,  999.0,  999.0,  999.0,  999.0,  999.0,  999.0
2012/11/23 18:20,  999.0,    0.3,    0.2,    0.4,    0.2,    0.2,    0.3,    0.7,    0.9,  999.0,    1.8,    3.0,    4.1,    4.7,    5.1,    4.6,    1.6,    1.4,    1.3,    1.1,    0.0,   -0.1,    0.0,   -0.2,    0.2,   -0.2,    0.1,   -0.1,   -0.5,    0.0,   -0.1,    0.0,  999.0,  999.0,   -0.1,  999.0,   -0.0,   -0.4,    0.0,    0.1,   -0.0,   -0.2,   -0.3,   -0.2,   -0.1,  999.0,   -0.0,  999.0,    0.1,  999.0,   -0.2,   -0.6,    0.1,   -0.1,   -0.0,   -0.1,   -0.4,  999.0,    0.2,  999.0,    0.2,  999.0,   -0.2,  999.0,  999.0,  999.0,  999.0,  999.0,  999.0,  999.0,  999.0,  999.0,   -0.1,    0.0,  999.0,  999.0,  999.0,  999.0,  999.0,  999.0
2012/11/23 18:30,  999.0,   -0.0,   -0.0,    0.2,  999.0,   -0.3,    0.1,    0.2,    0.5,    0.2,    0.2,    0.6,    0.6,    0.7,    1.0,    1.1,    1.0,    0.4,    0.2,    0.3,    0.4,    0.1,   -0.0,   -0.0,    0.0,   -0.1,   -0.0,   -0.0,   -0.0,   -0.0,   -0.0,    0.1,   -0.2,    0.2,   -0.4,  999.0,  999.0,    0.2,    0.3,  999.0,   -0.3,   -0.0,   -0.2,   -0.1,   -0.0,    0.1,  999.0,  999.0,  999.0,  999.0,  999.0,  999.0,  999.0,  999.0,  999.0,  999.0,  999.0,  999.0,    8.8,    6.9,  999.0,    5.2,    5.4,    8.3,  999.0,  999.0,  999.0,  999.0,  999.0,  999.0,  999.0,  999.0,  999.0,  999.0,  999.0,  999.0,  999.0,  999.0,  999.0,  999.0
2012/11/23 18:40,  999.0,    0.0,    0.0,   -0.1,   -0.1,    0.2,    0.1,    0.1,    0.0,   -0.0,   -0.2,    0.2,    0.1,    0.1,    0.2,    0.4,    0.2,    0.2,    0.2,    0.1,    0.0,    0.0,   -0.0,    0.1,   -0.0,    0.1,   -0.2,    0.0,    0.2,   -0.1,    0.2,    0.0,    0.0,   -0.1,  999.0,    0.8,    0.2,  999.0,   -0.0,    0.1,   -0.1,   -0.1,    0.1,   -0.0,   -0.2,    0.0,    0.3,    0.3,    0.1,  999.0,   -0.2,  999.0,  999.0,  999.0,  999.0,    2.7,  999.0,  999.0,    5.9,    4.5,  999.0,    3.0,  999.0,  999.0,  999.0,  999.0,  999.0,  999.0,  999.0,  999.0,  999.0,  999.0,  999.0,  999.0,  999.0,  999.0,  999.0,  999.0,  999.0,  999.0
2012/11/23 18:50,  999.0,  999.0,   -0.1,   -0.1,  999.0,  999.0,  999.0,  999.0,    0.0,    0.2,    0.2,    0.1,   -0.0,    0.0,    0.3,    0.3,    0.2,    0.1,    0.3,   -0.0,   -0.1,    0.1,    0.2,    0.1,    0.1,   -0.1,   -0.0,    0.0,   -0.1,   -0.0,   -0.4,   -0.0,    0.2,    0.3,    0.7,    0.4,  999.0,    0.3,    0.2,   -0.1,   -0.3,   -0.4,    0.2,    0.0,    0.0,   -0.0,   -0.0,   -0.2,   -0.3,   -0.0,    0.3,    0.1,    0.1,   -0.1,   -0.1,    0.1,    0.2,    0.1,   -0.2,  999.0,    0.4,    0.1,   -0.1,   -0.0,    0.0,  999.0,  999.0,  999.0,  999.0,  999.0,  999.0,  999.0,  999.0,  999.0,  999.0,  999.0,  999.0,  999.0,  999.0,  999.0
2012/11/23 19:00,  999.0,  999.0,   -0.0,    0.2,    0.3,  999.0,   -0.1,  999.0,    0.0,    0.3,   -0.0,    0.0,    0.4,    0.3,    0.3,    0.1,    0.2,    0.2,    0.2,    0.2,    0.2,    0.1,    0.1,    0.1,    0.1,    0.0,   -0.1,    0.2,   -0.1,   -0.2,    0.0,   -0.0,   -0.1,   -0.0,    0.1,  999.0,    0.4,  999.0,   -0.2,    0.0,   -0.2,   -0.2,   -0.1,    0.1,    0.0,    0.0,    0.1,    0.5,    0.1,    0.1,    0.0,    0.1,    0.1,    0.1,    0.0,   -0.0,   -0.1,   -0.1,   -0.0,    0.1,    0.2,    0.1,   -0.1,   -0.2,  999.0,   -0.2,    0.0,    0.3,  999.0,  999.0,  999.0,  999.0,   -0.1,    0.1,  999.0,  999.0,  999.0,  999.0,  999.0,  999.0
2012/11/23 19:10,  999.0,    0.1,   -0.0,   -0.1,  999.0,   -0.1,  999.0,  999.0,  999.0,  999.0,  999.0,   -0.0,   -0.1,    0.0,    0.1,    0.3,  999.0,    0.1,  999.0,   -0.1,   -0.1,    0.0,   -0.2,   -0.3,   -0.1,   -0.0,   -0.1,  999.0,   -0.2,   -0.2,   -0.2,   -0.1,    0.4,    0.8,  999.0,  999.0,    0.0,    0.3,    0.2,    0.4,    0.1,  999.0,    0.2,    0.1,   -0.2,    0.3,    0.0,   -0.1,   -0.2,    0.1,   -0.2,   -0.2,    0.1,   -0.0,   -0.0,    0.1,   -0.1,   -0.2,   -0.2,   -0.1,    0.4,    0.1,    0.2,   -0.2,  999.0,   -0.4,    0.0,    0.0,    0.1,  999.0,  999.0,  999.0,    0.1,   -0.2,  999.0,  999.0,  999.0,  999.0,  999.0,  999.0
2012/11/23 19:20,  999.0,    0.0,   -0.2,   -0.0,  999.0,  999.0,  999.0,  999.0,   -0.2,   -0.1,  999.0,    0.0,    0.1,    0.1,    0.1,    0.0,    0.0,    0.2,  999.0,   -0.0,    0.1,    0.1,    0.8,    0.2,   -0.0,    0.1,    0.1,   -0.0,   -0.2,   -0.0,  999.0,   -0.9,   -0.1,  999.0,  999.0,  999.0,    1.9,  999.0,  999.0,    0.2,   -0.4,    0.1,    0.2,    0.1,    0.1,   -0.1,    0.1,   -0.0,   -0.1,   -0.1,   -0.2,    0.1,    0.1,    0.0,    0.1,    0.2,    0.1,   -0.1,   -0.0,   -0.0,   -0.1,    0.0,    0.2,    0.1,    0.0,   -0.3,  999.0,  999.0,   -0.1,    0.6,  999.0,  999.0,    0.2,    0.1,  999.0,  999.0,  999.0,  999.0,  999.0,  999.0
2012/11/23 19:30,  999.0,   -0.1,    0.0,    0.3,    0.0,  999.0,  999.0,   -0.2,  999.0,    0.3,    0.1,    0.0,    0.1,   -0.1,    0.2,    0.3,    0.2,    0.1,    0.2,   -0.1,   -0.2,    0.2,    0.5,    0.6,    0.1,    0.0,    0.0,   -0.0,   -0.2,    0.1,    0.0,   -0.1,   -0.1,    0.1,    1.9,    2.9,    1.2,    2.1,  999.0,    0.7,    0.0,   -0.1,    0.0,    0.2,    0.2,   -0.1,   -0.1,   -0.4,    0.2,    0.2,    0.1,   -0.1,   -0.1,   -0.0,    0.1,   -0.1,   -0.1,   -0.1,   -0.2,   -0.1,    0.0,   -0.4,    0.3,   -0.1,    0.0,    0.1,    0.2,    0.1,    0.1,  999.0,  999.0,  999.0,    0.0,    0.1,  999.0,  999.0,  999.0,  999.0,  999.0,  999.0
2012/11/23 19:40,  999.0,   -0.2,   -0.5,   -0.1,    1.6,  999.0,    0.2,    0.1,  999.0,   -0.0,   -0.2,   -0.1,   -0.2,   -0.5,   -0.1,   -0.1,    0.3,   -0.2,    0.4,    0.0,   -0.1,    0.4,   -0.1,   -0.2,   -0.1,    0.2,    0.2,   -0.1,    0.1,    0.2,   -0.0,   -0.1,   -0.0,    0.2,   -0.2,    0.2,  999.0,  999.0,  999.0,   14.5,   11.0,  999.0,    0.6,    0.4,  999.0,    0.2,    0.2,    0.1,   -0.0,    0.3,   -0.1,   -0.7,   -0.0,    0.1,   -0.1,    0.2,    0.4,   -0.0,   -0.0,   -0.1,   -0.2,   -0.4,    0.1,   -0.1,   -0.3,   -0.0,  999.0,   -0.4,   -0.1,  999.0,  999.0,  999.0,  999.0,  999.0,  999.0,  999.0,  999.0,  999.0,  999.0,  999.0
2012/11/23 19:50,  999.0,    0.0,   -0.2,    2.8,  999.0,  999.0,  999.0,  999.0,  999.0,  999.0,  999.0,   -0.2,   -0.2,   -0.1,   -0.2,   -0.0,   -0.0,    0.0,    0.2,   -0.4,  999.0,    0.0,   -0.0,    0.1,   -0.0,    0.1,    0.1,    0.1,    0.0,    0.1,   -0.1,   -0.0,    0.1,   -0.2,   -0.1,    0.0,  999.0,  999.0,  999.0,   14.3,   14.2,  999.0,  999.0,  999.0,  999.0,    0.3,  999.0,    0.0,    0.4,    0.1,    0.3,    0.0,    0.3,    0.0,    0.3,   -0.1,   -0.3,    0.1,   -0.0,    0.2,    0.1,   -0.1,   -0.0,    0.1,   -0.2,   -0.1,  999.0,  999.0,    0.1,  999.0,  999.0,  999.0,  999.0,   -0.0,  999.0,  999.0,  999.0,  999.0,  999.0,  999.0
2012/11/23 20:00,  999.0,  999.0,   -0.1,    0.5,    0.3,    0.3,  999.0,  999.0,  999.0,    0.1,    0.2,    0.1,    0.2,    0.0,  999.0,    0.2,    0.1,    0.1,    0.2,    0.1,    0.0,    0.5,    0.7,    0.3,    0.0,    0.9,    0.3,   -0.0,    0.0,    0.1,    0.1,   -0.1,   -0.1,   -0.3,   -0.3,  999.0,   -0.2,  999.0,    0.7,   12.2,    6.5,  999.0,  999.0,   -0.2,  999.0,   -0.2,   -0.1,   -0.4,    0.3,    0.4,  999.0,   -0.2,   -0.2,   -0.0,    0.1,   -0.1,    0.0,    0.0,   -0.0,   -0.0,    0.1,    0.0,   -0.3,   -0.0,   -0.0,   -0.0,  999.0,  999.0,    0.3,  999.0,  999.0,  999.0,   -0.4,   -0.2,  999.0,  999.0,  999.0,  999.0,  999.0,  999.0
2012/11/23 20:10,  999.0,   -0.2,   -0.6,  999.0,  999.0,   -0.1,  999.0,  999.0,  999.0,  999.0,   -0.1,    0.4,    0.4,    0.2,  999.0,    0.4,    0.2,  999.0,    0.4,  999.0,   -0.2,   -0.4,  999.0,    0.6,    0.5,    1.5,    1.2,    0.1,    0.1,    0.0,   -0.1,   -0.1,    0.2,    0.0,    0.2,    0.3,    0.1,    0.1,    0.2,    0.0,   -0.1,   -0.0,   -0.0,    0.1,    0.1,    0.3,    0.1,   -0.0,    0.3,    0.2,    0.0,   -0.2,   -0.2,   -0.0,    0.2,   -0.0,    0.2,    0.3,    0.3,   -0.1,    0.6,    0.1,  999.0,    0.4,  999.0,   -0.4,  999.0,    0.2,   -0.0,  999.0,    0.1,  999.0,   -0.2,  999.0,   -0.0,  999.0,  999.0,  999.0,  999.0,  999.0
2012/11/23 20:20,  999.0,  999.0,  999.0,  999.0,  999.0,  999.0,  999.0,  999.0,  999.0,  999.0,  999.0,  999.0,  999.0,  999.0,  999.0,    0.4,  999.0,  999.0,  999.0,  999.0,  999.0,    0.3,    0.5,    0.6,    0.4,    0.6,    0.7,    0.1,    0.0,   -0.1,   -0.0,   -0.2,   -0.1,   -0.0,    0.1,   -0.1,    0.0,    0.0,   -0.1,   -0.2,   -0.1,   -0.2,    0.2,   -0.0,    0.0,   -0.2,    0.0,    0.1,   -0.2,   -0.1,   -0.0,   -0.6,   -0.5,   -0.1,   -0.0,  999.0,    0.1,  999.0,   -0.3,   -0.3,    0.2,    0.0,  999.0,   -0.2,   -0.4,  999.0,   -0.0,  999.0,   -0.1,  999.0,  999.0,  999.0,   -0.2,   -0.3,  999.0,  999.0,  999.0,  999.0,  999.0,  999.0
2012/11/23 20:30,  999.0,  999.0,  999.0,  999.0,  999.0,  999.0,  999.0,  999.0,  999.0,  999.0,  999.0,  999.0,  999.0,  999.0,  999.0,  999.0,  999.0,  999.0,  999.0,    0.0,    0.0,   -0.0,    0.2,    0.0,    0.3,    0.5,    0.3,    0.1,    0.1,    0.2,   -0.1,   -0.1,    0.1,    0.0,    0.2,    0.0,   -0.1,   -0.0,    0.0,   -0.0,   -0.4,  999.0,    0.1,   -0.1,    0.0,   -0.1,   -0.1,   -0.0,    0.0,    0.1,   -0.0,    0.1,   -0.1,   -0.1,   -0.2,    0.1,   -0.5,    0.2,    0.3,    0.3,    0.0,    0.2,  999.0,  999.0,  999.0,    0.5,  999.0,  999.0,    0.1,  999.0,  999.0,  999.0,   -0.2,  999.0,  999.0,  999.0,  999.0,  999.0,  999.0,  999.0
2012/11/23 20:40,  999.0,  999.0,  999.0,  999.0,  999.0,  999.0,  999.0,  999.0,  999.0,  999.0,  999.0,  999.0,  999.0,  999.0,  999.0,   -5.4,    0.7,    0.9,  999.0,  999.0,  999.0,    0.2,    0.3,    0.3,    0.2,    0.2,    0.1,    0.1,   -0.1,   -0.0,   -0.1,   -0.2,   -0.0,    0.2,    0.1,    0.2,    0.2,   -0.0,   -0.0,   -0.0,   -0.2,   -0.1,   -0.0,   -0.1,   -0.2,   -0.1,   -0.1,    0.1,    0.1,    0.2,   -0.1,   -0.3,   -0.3,   -0.1,   -0.1,   -0.1,   -0.1,  999.0,   -0.6,   -0.4,  999.0,  999.0,   -0.2,   -0.1,    0.3,   -0.4,   -0.4,  999.0,  999.0,  999.0,  999.0,  999.0,  999.0,  999.0,  999.0,  999.0,  999.0,  999.0,  999.0,  999.0
2012/11/23 20:50,  999.0,  999.0,  999.0,  999.0,  999.0,  999.0,  999.0,  999.0,  999.0,  999.0,  999.0,  999.0,  999.0,  999.0,  999.0,  999.0,  999.0,  999.0,  999.0,  999.0,  999.0,    0.3,    0.2,    0.3,    0.1,    0.0,   -0.1,   -0.0,    0.0,    0.1,   -0.3,    0.3,   -0.1,  999.0,   -0.2,    0.2,   -0.0,    0.2,  999.0,    0.1,   -0.2,   -0.0,    0.2,   -0.1,    0.0,   -0.1,    0.1,    0.3,   -0.1,  999.0,    0.2,    0.5,   -0.3,    0.1,   -0.1,  999.0,    0.1,   -0.1,   -0.1,    0.1,  999.0,  999.0,   -0.1,   -0.5,   -0.2,  999.0,  999.0,  999.0,  999.0,  999.0,  999.0,  999.0,  999.0,  999.0,  999.0,  999.0,  999.0,  999.0,  999.0,  999.0
2012/11/23 21:00,  999.0,  999.0,  999.0,  999.0,  999.0,  999.0,  999.0,  999.0,  999.0,  999.0,  999.0,  999.0,   -5.0,  999.0,    0.9,    0.4,    0.8,    0.7,    0.3,    0.4,    0.5,    0.2,   -0.2,    0.1,    0.2,    0.1,   -0.0,   -0.1,   -0.1,    0.1,   -0.3,    0.1,    0.2,    0.3,   -0.1,    0.1,   -0.1,   -0.0,   -0.2,   -0.1,   -0.3,   -0.0,    0.3,   -0.3,   -0.2,    0.0,    0.2,    0.1,   -0.1,    0.1,    0.1,    0.2,    0.1,    0.1,   -0.2,  999.0,   -0.0,   -0.2,    0.1,    0.1,   -0.2,    0.1,    0.1,    0.0,    0.1,    0.1,  999.0,    0.3,    0.0,  999.0,  999.0,  999.0,  999.0,  999.0,  999.0,  999.0,  999.0,  999.0,  999.0,  999.0
2012/11/23 21:10,  999.0,  999.0,  999.0,  999.0,  999.0,  999.0,  999.0,  999.0,  999.0,  999.0,  999.0,  999.0,  999.0,  999.0,  999.0,  999.0,    0.3,    0.4,    0.1,   -0.0,    0.1,    0.3,   -0.1,    0.0,    0.1,    0.0,   -0.1,   -0.1,    0.2,   -0.2,    0.3,   -0.2,   -0.1,   -0.2,   -0.1,   -0.2,   -0.2,   -0.3,  999.0,    0.0,   -0.4,   -0.7,    0.1,    0.1,    0.0,   -0.1,    0.2,    0.1,   -0.1,    0.2,  999.0,   -0.2,   -0.2,   -0.1,   -0.3,   -0.1,   -0.0,  999.0,  999.0,  999.0,  999.0,  999.0,  999.0,   -0.0,  999.0,  999.0,  999.0,  999.0,  999.0,  999.0,  999.0,  999.0,  999.0,  999.0,  999.0,  999.0,  999.0,  999.0,  999.0,  999.0
2012/11/23 21:20,  999.0,  999.0,  999.0,  999.0,  999.0,  999.0,  999.0,  999.0,  999.0,  999.0,  999.0,  999.0,  999.0,  999.0,  999.0,  999.0,   -0.8,  999.0,  999.0,  999.0,   -0.1,    0.1,   -0.2,   -0.7,    0.2,    0.1,    0.0,    0.1,    0.0,    0.0,    0.2,   -0.0,   -0.0,  999.0,   -0.0,   -0.2,   -0.3,  999.0,   -0.0,   -0.3,   -0.3,    0.0,    0.3,    0.2,    0.1,    0.2,    0.0,    0.0,   -0.1,    0.0,    0.4,    0.1,    0.4,   -0.0,   -0.2,  999.0,    0.1,    0.1,   -0.1,   -0.1,    0.1,  999.0,    0.2,  999.0,    0.3,    0.5,  999.0,    0.3,  999.0,  999.0,  999.0,  999.0,    0.3,    0.3,  999.0,  999.0,  999.0,  999.0,  999.0,  999.0
2012/11/23 21:30,  999.0,   -0.0,    0.1,    0.4,    0.2,    0.5,    0.4,    0.2,  999.0,   -0.2,    0.3,    0.3,    0.1,    0.1,    0.5,    0.3,    0.2,    0.3,    0.2,    0.4,    0.2,   -0.3,    0.0,   -0.2,    0.1,    0.0,    0.0,    0.1,   -0.1,   -0.0,    0.1,   -0.1,    0.1,  999.0,    0.0,   -0.1,    0.2,  999.0,   -0.1,    0.2,   -0.2,  999.0,    0.0,   -0.0,    0.1,    0.0,    0.1,    0.1,  999.0,   -0.0,    0.3,    0.1,   -0.2,    0.0,    0.2,    0.1,    0.0,   -0.1,   -0.2,    0.1,    0.0,    0.2,    0.2,  999.0,  999.0,   -0.0,  999.0,  999.0,  999.0,  999.0,  999.0,  999.0,  999.0,  999.0,  999.0,  999.0,  999.0,  999.0,  999.0,  999.0
2012/11/23 21:40,  999.0,  999.0,  999.0,    0.9,    0.9,  999.0,  999.0,  999.0,  999.0,  999.0,    0.7,    0.1,    0.5,    0.5,    0.3,    0.2,    0.0,   -0.2,   -0.0,   -0.1,   -0.2,   -0.2,   -0.3,   -0.2,   -0.2,   -0.1,   -0.0,   -0.1,   -0.1,    0.2,   -0.0,    0.0,    0.0,   -0.3,  999.0,   -0.0,    0.0,    0.1,    0.1,   -0.2,   -0.4,   -0.2,   -0.3,    0.1,  999.0,    0.0,    0.3,  999.0,    0.0,    0.1,    0.4,  999.0,  999.0,  999.0,  999.0,    0.3,  999.0,    0.3,    0.2,    0.1,  999.0,  999.0,  999.0,   -0.5,    0.1,  999.0,  999.0,  999.0,  999.0,  999.0,  999.0,  999.0,  999.0,  999.0,  999.0,  999.0,  999.0,  999.0,  999.0,  999.0
2012/11/23 21:50,  999.0,   -0.0,    0.3,   -0.5,  999.0,  999.0,  999.0,  999.0,  999.0,   -0.1,  999.0,  999.0,  999.0,   -0.1,    0.0,    0.1,   -0.1,   -0.2,   -0.4,   -0.1,   -0.0,   -0.0,    0.0,   -0.3,   -0.1,   -0.0,    0.1,    0.1,    0.1,    0.1,    0.1,    0.1,   -0.0,    0.1,    0.3,  999.0,    0.3,    0.2,    0.1,    0.1,   -0.3,   -0.6,   -0.0,    0.0,  999.0,    0.2,    0.0,    0.3,   -0.4,  999.0,  999.0,  999.0,    0.0,    0.3,    0.1,    0.2,    0.1,   -0.0,    0.0,    0.1,  999.0,  999.0,  999.0,  999.0,    0.3,  999.0,  999.0,  999.0,  999.0,  999.0,  999.0,  999.0,  999.0,  999.0,  999.0,  999.0,  999.0,  999.0,  999.0,  999.0
2012/11/23 22:00,  999.0,  999.0,   -0.2,    0.3,  999.0,  999.0,  999.0,  999.0,  999.0,  999.0,  999.0,    0.3,  999.0,    0.6,    0.3,    0.5,    0.3,    0.1,   -0.0,    0.0,    0.1,    0.2,   -0.1,   -0.4,   -0.3,   -0.1,   -0.2,    0.1,   -0.0,   -0.1,   -0.0,   -0.0,    0.0,    0.2,    0.0,  999.0,    0.1,    0.2,  999.0,    0.1,   -0.2,   -0.6,  999.0,  999.0,   -0.0,   -0.1,   -0.0,   -0.3,  999.0,  999.0,   -0.0,  999.0,   -0.1,   -0.4,    0.1,  999.0,  999.0,  999.0,  999.0,  999.0,  999.0,  999.0,  999.0,  999.0,  999.0,  999.0,  999.0,  999.0,  999.0,  999.0,  999.0,  999.0,  999.0,  999.0,  999.0,  999.0,  999.0,  999.0,  999.0,  999.0
2012/11/23 22:10,  999.0,  999.0,  999.0,  999.0,  999.0,    0.7,  999.0,  999.0,  999.0,  999.0,    0.0,    0.2,    0.3,    0.3,    0.4,    0.4,   -0.0,    0.1,   -0.1,   -0.1,   -0.1,   -0.3,   -0.6,   -0.5,   -0.2,    0.0,   -0.1,   -0.0,   -0.2,   -0.1,   -0.2,   -0.0,   -0.2,   -0.2,   -0.4,    0.2,   -0.1,   -0.1,  999.0,   -0.0,   -0.2,   -0.2,  999.0,   -0.1,    0.2,    0.2,    0.0,  999.0,  999.0,    0.0,  999.0,  999.0,   -0.2,  999.0,  999.0,  999.0,  999.0,  999.0,  999.0,  999.0,  999.0,  999.0,  999.0,  999.0,   -0.2,  999.0,  999.0,  999.0,  999.0,  999.0,  999.0,  999.0,  999.0,  999.0,  999.0,  999.0,  999.0,  999.0,  999.0,  999.0
2012/11/23 22:20,  999.0,   -0.1,   -0.1,    0.1,  999.0,    0.3,   -0.6,  999.0,  999.0,    0.1,    0.1,    0.2,    0.4,    0.5,    0.2,    0.0,   -0.1,   -0.1,   -0.0,    0.0,   -0.1,   -0.5,   -1.1,   -0.4,    0.1,    0.1,    0.1,    0.0,   -0.0,    0.1,   -0.2,    0.0,   -0.3,  999.0,    0.1,  999.0,    0.3,   -0.3,   -0.3,   -0.4,   -0.3,   -0.4,   -0.0,   -0.2,    0.2,  999.0,   -0.1,  999.0,   -0.3,    0.4,   -0.2,   -0.3,  999.0,   -0.3,   -0.3,  999.0,  999.0,  999.0,  999.0,    0.1,  999.0,  999.0,  999.0,  999.0,  999.0,  999.0,  999.0,  999.0,  999.0,  999.0,  999.0,  999.0,  999.0,  999.0,  999.0,  999.0,  999.0,  999.0,  999.0,  999.0
2012/11/23 22:30,  999.0,  999.0,  999.0,  999.0,  999.0,  999.0,  999.0,  999.0,  999.0,  999.0,  999.0,  999.0,  999.0,  999.0,    0.5,    0.2,    0.2,    0.0,   -0.1,    0.2,    0.1,    0.4,    0.0,   -0.1,   -0.2,    0.0,    0.1,    0.1,   -0.1,    0.1,    0.3,    0.1,    0.2,   -0.1,   -0.2,   -0.1,  999.0,  999.0,    0.1,   -0.0,   -0.4,   -0.1,   -0.1,    0.1,   -0.1,   -0.2,  999.0,  999.0,    0.0,   -0.2,   -0.2,   -0.0,  999.0,  999.0,    0.0,   -0.0,    0.0,  999.0,    0.1,   -0.0,  999.0,   -0.4,  999.0,   -0.4,  999.0,  999.0,  999.0,  999.0,  999.0,  999.0,  999.0,  999.0,  999.0,  999.0,  999.0,  999.0,  999.0,  999.0,  999.0,  999.0
2012/11/23 22:40,  999.0,  999.0,  999.0,  999.0,  999.0,  999.0,  999.0,  999.0,  999.0,    0.4,    0.9,    0.5,    0.2,    0.2,    0.3,    0.5,    0.4,    0.4,    0.3,    0.1,    0.1,    0.3,  999.0,    0.7,    0.2,   -0.1,   -0.2,   -0.1,    0.2,    0.1,   -0.0,    0.0,   -0.3,   -0.3,   -0.2,   -0.1,  999.0,   -0.1,   -0.1,   -0.2,   -0.2,    0.0,   -0.1,   -0.3,  999.0,    0.5,  999.0,   -0.0,  999.0,  999.0,    0.0,    0.0,   -0.2,   -0.2,    0.0,    0.2,   -0.2,    0.1,    0.4,   -0.0,   -0.0,    0.1,    0.1,   -0.3,  999.0,  999.0,  999.0,  999.0,  999.0,  999.0,  999.0,  999.0,  999.0,  999.0,  999.0,  999.0,  999.0,  999.0,  999.0,  999.0
2012/11/23 22:50,  999.0,    0.5,  999.0,  999.0,  999.0,    0.5,   -0.1,   -0.1,  999.0,    0.1,    0.5,    0.3,    0.2,    0.0,    0.4,    0.3,    0.3,    0.2,    0.1,    0.1,    0.5,    0.7,  999.0,  999.0,    0.2,   -0.1,    0.1,    0.1,   -0.1,   -0.0,    0.2,    0.1,   -0.0,    0.1,   -0.1,   -0.1,   -0.1,  999.0,    0.1,   -0.1,  999.0,  999.0,  999.0,    0.2,  999.0,    0.3,    0.3,   -0.5,    0.1,    0.4,    0.1,   -0.2,    0.2,   -0.6,   -0.3,   -0.2,   -0.0,   -0.2,   -0.2,    0.1,    0.4,  999.0,    0.1,    0.0,  999.0,    0.0,  999.0,  999.0,  999.0,  999.0,  999.0,  999.0,  999.0,  999.0,  999.0,  999.0,  999.0,  999.0,  999.0,  999.0
2012/11/23 23:00,  999.0,    0.5,   -0.2,    0.1,   -0.1,    0.6,    0.1,   -0.0,   -0.1,  999.0,    0.3,    0.4,    0.3,    0.8,    0.6,    0.7,    0.2,   -0.2,   -0.1,    0.1,   -0.1,  999.0,  999.0,   -0.1,   -0.1,   -0.1,   -0.1,    0.0,   -0.1,   -0.3,    0.3,   -0.4,  999.0,    0.3,    0.1,   -0.4,    0.1,    0.3,  999.0,   -0.1,  999.0,  999.0,  999.0,   -0.0,   -0.2,    0.4,  999.0,    0.1,   -0.1,  999.0,  999.0,    0.1,  999.0,   -0.3,   -0.3,   -0.1,    0.0,   -0.1,  999.0,   -0.1,   -0.3,   -0.5,  999.0,    0.1,    0.4,    0.4,    0.2,  999.0,  999.0,  999.0,  999.0,  999.0,  999.0,  999.0,  999.0,  999.0,  999.0,  999.0,  999.0,  999.0
2012/11/23 23:10,  999.0,  999.0,  999.0,  999.0,   -0.0,  999.0,   -0.2,    0.0,   -0.2,    0.2,    0.5,    0.5,    0.4,    0.4,    0.5,    0.7,    0.3,    0.1,    0.0,    0.2,   -0.2,    0.1,  999.0,   -0.3,   -0.6,   -0.3,   -0.2,    0.0,    0.0,   -0.1,    0.1,    0.1,   -0.2,    0.3,   -0.0,   -0.2,   -0.0,  999.0,  999.0,  999.0,  999.0,  999.0,  999.0,   -0.3,    0.5,    0.3,    0.4,   -0.1,    0.1,  999.0,  999.0,  999.0,  999.0,  999.0,    0.2,   -0.2,  999.0,  999.0,    0.0,   -0.3,   -0.0,   -0.2,   -0.0,    0.1,  999.0,  999.0,    0.1,  999.0,  999.0,  999.0,  999.0,  999.0,  999.0,  999.0,  999.0,  999.0,  999.0,  999.0,  999.0,  999.0
2012/11/23 23:20,  999.0,   -0.2,   -0.1,   -0.1,   -0.0,    0.6,   -0.1,  999.0,    0.0,    0.0,    0.5,    0.5,    0.3,    0.7,    0.1,    0.1,    0.2,    0.3,    0.2,    0.2,    0.3,    0.8,    1.3,    1.4,    1.3,    0.2,   -0.0,    0.1,   -0.1,   -0.0,   -0.2,   -0.2,    0.1,   -0.0,  999.0,  999.0,   -0.3,  999.0,  999.0,  999.0,   -0.3,  999.0,  999.0,   -0.0,  999.0,   -0.1,    0.1,  999.0,    0.3,  999.0,  999.0,  999.0,    0.3,  999.0,  999.0,  999.0,  999.0,  999.0,  999.0,  999.0,  999.0,  999.0,  999.0,  999.0,  999.0,  999.0,  999.0,  999.0,  999.0,  999.0,  999.0,  999.0,  999.0,  999.0,  999.0,  999.0,  999.0,  999.0,  999.0,  999.0
2012/11/23 23:30,  999.0,  999.0,  999.0,  999.0,  999.0,  999.0,  999.0,  999.0,  999.0,  999.0,  999.0,  999.0,    0.8,    0.4,    1.6,    1.1,    0.7,    0.4,    0.2,    0.2,    0.2,    0.6,    1.6,    2.2,    1.4,    1.4,    0.6,   -0.1,   -0.1,    0.2,   -0.2,    0.2,    0.0,  999.0,  999.0,  999.0,  999.0,  999.0,  999.0,  999.0,  999.0,  999.0,  999.0,  999.0,    0.1,  999.0,    0.2,  999.0,    0.0,  999.0,  999.0,  999.0,  999.0,  999.0,  999.0,  999.0,  999.0,  999.0,  999.0,  999.0,  999.0,  999.0,  999.0,  999.0,  999.0,  999.0,  999.0,  999.0,  999.0,  999.0,  999.0,  999.0,  999.0,  999.0,  999.0,  999.0,  999.0,  999.0,  999.0,  999.0
2012/11/23 23:40,  999.0,  999.0,  999.0,  999.0,  999.0,  999.0,  999.0,   11.1,  999.0,    6.5,    6.3,    7.4,    4.6,  999.0,  999.0,    1.0,  999.0,  999.0,   -0.9,  999.0,   -0.1,    1.8,  999.0,    0.6,    0.1,  999.0,   -0.1,    0.2,   -0.1,   -0.2,   -0.1,   -0.1,    0.1,    0.2,  999.0,  999.0,  999.0,  999.0,  999.0,  999.0,  999.0,  999.0,  999.0,  999.0,  999.0,  999.0,    0.2,    0.4,  999.0,  999.0,  999.0,  999.0,    0.1,  999.0,  999.0,  999.0,  999.0,  999.0,  999.0,  999.0,  999.0,  999.0,  999.0,  999.0,  999.0,  999.0,  999.0,  999.0,  999.0,  999.0,  999.0,  999.0,  999.0,  999.0,  999.0,  999.0,  999.0,  999.0,  999.0,  999.0
2012/11/23 23:50,  999.0,  999.0,  999.0,  999.0,  999.0,  999.0,  999.0,  999.0,  999.0,   13.2,   11.5,    9.4,    8.6,    9.5,  999.0,  999.0,  999.0,  999.0,  999.0,    0.3,  999.0,  999.0,  999.0,   -0.1,  999.0,  999.0,    0.0,    0.0,    0.2,   -0.1,    0.2,   -0.0,  999.0,  999.0,  999.0,  999.0,  999.0,  999.0,  999.0,  999.0,  999.0,  999.0,  999.0,  999.0,  999.0,  999.0,  999.0,   -0.0,  999.0,  999.0,  999.0,  999.0,  999.0,  999.0,  999.0,  999.0,  999.0,  999.0,  999.0,  999.0,  999.0,  999.0,  999.0,  999.0,  999.0,  999.0,  999.0,  999.0,  999.0,  999.0,  999.0,  999.0,  999.0,  999.0,  999.0,  999.0,  999.0,  999.0,  999.0,  999.0
